GEFSSGP_con_probscp_018.txt.gz
Probability
0 0 0 0 0 0 0 0 0 0 0 0 0 0 0 0 0 0 0 0 0 0 0 0 0 0 0 0 0 0 0 0 0 0 0 0 0 0 0 0 0 0 0 0 0 0 0 0 0
0 0 0 0 0 0 0 0 0 0 0 0 0 0 0 0 0 0 0 0 0 0 0 0 0 0 0 0 0 0 0 0 0 0 0 0 0 0 0 0 0 0 0 0 0 0 0 0 0
0 0 0 0 0 0 0 0 0 0 0 0 0 0 0 0 0 0 0 0 0 0 0 0 0 0 0 0 0 0 0 0 0 0 0 0 0 0 0 0 0 0 0 0 0 0 0 0 0
0 0 0 0 0 0 0 0 0 0 0 0 0 0 0 0 0 0 0 0 0 0 0 0 0 0 0 0 0 0 0 0 0 0 0 0 0 0 0 0 0 0 0 0 0 0 0 0 0
0 0 0 0 0 0 0 0 0 0 0 0 0 0 0 0 0 0 0 0 0 0 0 0 0 0 0 0 0 0 0 0 0 0 0 0 0 0 0 0 0 0 0 0 0 0 0 0 0
0 0 0 0 0 0 0 0 0 0 0 0 0 0 0 0 0 0 0 0 0 0 0 0 0 0 0 0 0 0 0 0 0 0 0 0 0 0 0 0 0 0 0 0 0 0 0 0 0
0 0 0 0 0 0 0 0 0 0 0 0 0 0 0 0 0 0 0 0 0 0 0 0 0 0 0 0 0 0 0 0 0 0 0 0 0 0 0 0 0 0 0 0 0 0 0 0 0
0 0 0 0 0 0 0 0 0 0 0 0 0 0 0 0 0 0 0 0 0 0 0 0 0 1 1 1 1 2 2 2 1 0 0 0 0 0 0 0 0 0 0 0 0 0 0 0 0
0 0 0 0 0 0 0 0 0 0 0 0 0 0 0 0 0 0 0 0 0 0 0 0 1 3 2 3 8 10 11 13 11 7 7 6 2 0 1 4 5 2 0 0 0 0 0 0 0
0 0 0 0 0 0 0 0 0 0 0 0 0 0 0 1 0 0 0 0 0 0 0 0 3 5 4 7 17 23 29 37 33 24 26 26 16 9 7 11 13 6 1 0 1 1 1 0 0
0 0 0 0 0 0 0 0 0 0 0 0 2 6 8 6 2 0 0 0 0 0 0 0 2 4 5 10 22 35 47 58 55 47 50 54 50 41 35 35 31 22 18 16 14 11 5 1 1
0 0 0 0 0 0 0 0 0 0 0 3 12 27 30 19 8 3 1 0 0 0 0 0 0 2 5 10 19 32 43 53 59 61 70 81 84 80 76 72 63 55 53 48 39 28 15 7 5
0 0 0 0 0 0 0 0 0 0 3 11 31 54 58 42 27 18 10 5 2 1 1 1 1 2 6 13 18 21 26 31 42 59 75 87 95 95 95 93 89 85 82 74 60 41 28 21 17
0 0 0 0 0 0 0 0 0 1 7 23 51 74 77 67 56 44 30 16 8 5 6 7 8 10 17 28 35 32 26 24 31 47 59 68 77 80 81 82 85 87 86 82 68 48 37 34 30
0 0 0 0 0 0 0 0 1 4 13 35 67 87 90 85 78 63 41 23 14 13 18 21 25 33 43 53 61 57 46 36 36 41 41 41 46 54 60 64 69 76 82 83 76 61 52 48 43
0 0 0 0 0 0 0 2 6 11 21 46 78 96 98 94 87 67 43 29 25 27 35 41 47 60 70 72 73 68 57 48 42 38 31 23 22 30 42 54 63 72 80 85 85 80 75 70 66
0 0 0 0 0 0 0 4 14 25 36 58 85 99 99 96 90 74 54 47 48 50 54 59 67 75 76 71 64 55 48 40 32 25 18 12 9 12 22 36 48 56 67 77 85 90 91 89 88
0 0 0 0 0 0 0 5 19 36 52 71 90 98 98 97 94 86 75 72 75 73 69 68 71 70 61 49 39 29 22 18 13 10 7 4 2 2 5 11 17 24 38 54 68 76 81 84 87
0 0 0 0 0 0 0 3 13 29 48 68 85 93 95 97 97 93 88 86 85 80 71 63 56 47 34 24 16 9 4 2 2 2 1 0 0 0 0 0 1 4 13 28 40 46 50 56 63
0 0 0 0 0 0 0 1 4 12 24 42 62 76 86 94 97 94 88 82 75 68 58 47 35 24 15 10 7 3 1 0 0 0 0 0 0 0 0 0 0 0 4 11 18 23 24 27 33
0 0 0 0 0 0 0 0 0 2 5 14 32 54 74 88 94 91 79 65 53 46 38 28 20 16 14 13 10 5 1 0 0 0 0 0 0 0 0 0 0 0 1 3 8 12 12 12 13
0 0 0 0 0 0 0 0 0 0 0 3 16 40 65 83 89 83 66 45 32 26 20 17 19 24 27 27 20 11 3 0 0 0 0 0 0 0 0 0 0 0 0 0 2 4 6 7 6
0 0 0 0 0 0 0 0 0 0 0 2 12 31 55 72 77 69 51 33 22 17 13 15 26 39 48 48 38 23 10 3 1 0 0 1 0 0 0 0 0 0 0 0 0 1 3 5 5
0 0 0 0 0 0 0 0 0 0 0 2 10 26 43 55 61 57 45 34 27 21 17 19 31 51 64 65 57 43 27 14 5 2 0 0 0 0 0 0 0 0 0 0 0 0 2 4 5
0 0 0 0 0 0 0 0 0 0 0 2 10 23 34 39 42 43 37 31 27 23 24 28 39 57 69 73 73 67 53 33 16 7 2 0 0 0 0 0 0 0 0 0 0 0 1 2 4
0 0 0 0 0 0 0 0 0 1 1 2 7 15 21 21 21 20 17 15 14 15 23 35 49 64 73 79 84 84 74 54 34 21 11 4 2 1 0 0 0 0 0 0 0 0 0 2 3
0 0 0 0 0 0 0 0 0 1 2 2 3 6 7 6 4 3 2 2 3 6 15 29 47 62 72 80 86 88 82 70 55 42 29 17 12 8 3 1 0 0 0 0 0 0 0 1 2
0 0 0 0 0 0 0 0 0 1 1 1 0 1 1 0 0 0 0 0 1 2 6 15 27 39 51 63 72 79 82 79 71 61 49 38 29 21 12 5 1 0 0 0 0 0 0 1 2
0 0 0 0 0 0 0 0 0 0 0 0 0 0 0 0 0 0 0 0 0 0 1 4 7 13 21 30 42 56 68 75 76 71 63 56 47 35 23 12 4 1 0 0 0 0 0 1 2
0 0 0 0 0 0 0 0 0 0 0 0 0 0 0 0 0 0 0 0 0 0 0 0 0 2 5 10 19 34 52 67 75 72 67 63 57 43 29 17 7 1 0 0 0 0 0 1 2

GEFSSGP_con_probscp_024.txt.gz
Probability
0 0 0 0 0 0 0 0 0 0 0 0 0 0 0 0 0 0 0 0 0 0 0 0 0 0 0 0 0 0 0 0 0 0 0 0 0 0 0 0 0 0 0 0 0 0 0 0 0
0 0 0 0 0 0 0 0 0 0 0 0 0 0 0 0 0 0 0 0 0 0 0 0 0 0 0 0 0 0 0 0 0 0 0 0 0 0 0 0 0 0 0 0 0 0 0 0 0
0 0 0 0 0 0 0 0 0 0 0 0 0 0 0 0 0 0 0 0 0 0 0 0 0 0 0 0 0 0 0 0 0 0 0 0 0 0 0 0 0 0 0 0 0 0 0 0 0
0 0 0 0 0 0 0 0 0 0 0 0 0 0 0 0 0 0 0 0 0 0 0 0 0 0 0 0 0 0 0 0 0 0 0 0 0 0 0 0 0 0 0 0 0 0 0 0 0
0 0 0 0 0 0 0 0 0 0 0 0 0 0 0 0 0 0 0 0 0 0 0 0 0 0 0 0 0 0 0 0 0 0 0 0 0 0 0 0 0 0 0 0 0 0 0 0 0
0 0 0 0 0 0 0 0 0 0 0 0 0 0 0 0 0 0 0 0 1 1 1 0 0 0 0 0 0 0 0 0 0 0 0 0 0 0 0 0 0 0 0 0 0 0 0 0 0
0 0 0 0 0 0 0 0 0 0 0 0 0 0 0 0 0 0 0 0 2 5 5 2 0 0 0 0 0 0 0 0 0 0 0 0 0 0 0 0 0 0 0 0 0 0 0 0 0
0 0 0 0 0 0 0 0 0 0 0 0 1 1 1 0 0 0 0 0 4 14 14 6 1 2 2 2 2 3 2 2 1 0 0 0 0 1 2 3 2 1 1 1 3 3 4 4 3
0 0 0 0 0 0 0 0 0 0 1 5 8 7 3 0 0 0 0 0 6 21 25 15 13 15 8 8 15 14 11 12 11 8 10 10 6 3 9 18 21 19 21 24 26 25 23 19 15
0 0 0 0 0 0 0 0 0 1 6 17 25 17 5 1 1 2 1 2 8 21 28 28 39 41 22 23 40 34 27 38 38 32 37 42 33 21 24 45 58 56 59 63 64 61 55 45 36
0 0 0 0 0 0 0 0 0 2 13 32 39 26 10 6 9 11 13 18 23 23 21 35 61 69 47 44 62 59 54 68 73 66 71 76 73 59 54 71 86 86 86 86 84 83 79 67 56
0 0 0 0 0 0 0 0 0 3 15 32 37 28 18 18 23 31 39 50 53 36 21 37 73 88 74 62 70 79 81 88 92 92 91 94 95 89 84 89 96 96 95 90 86 88 88 80 70
0 0 0 0 0 0 0 0 0 3 13 23 26 25 26 32 41 52 66 80 81 62 42 54 82 97 91 77 74 84 91 94 96 99 99 98 99 97 95 95 96 94 91 87 85 87 89 86 83
0 0 0 0 0 0 0 0 0 2 10 17 21 26 34 43 54 69 86 95 95 85 76 80 91 98 97 91 83 85 92 96 97 99 99 100 99 97 94 92 89 83 75 70 72 79 83 83 82
0 0 0 0 0 0 0 0 0 1 6 14 20 29 42 54 67 84 96 99 99 97 95 94 95 97 99 98 94 93 95 98 99 99 99 98 97 94 90 84 77 69 62 57 61 67 70 70 69
0 0 0 0 0 0 0 0 0 0 4 9 17 30 50 68 81 92 98 99 99 100 99 98 96 97 99 100 99 98 98 98 96 95 94 89 81 74 71 68 62 56 53 51 52 57 60 59 58
0 0 0 0 0 0 0 0 0 0 2 6 15 32 60 83 92 95 98 99 99 99 99 98 98 98 100 99 96 93 91 86 78 77 79 70 53 42 42 44 43 39 37 36 37 45 51 51 51
0 0 0 0 0 0 0 0 0 0 0 4 14 36 67 89 96 96 96 97 97 97 96 97 98 98 99 98 92 86 80 66 52 54 60 49 28 19 20 21 22 20 18 18 20 25 31 34 35
0 0 0 0 0 0 0 0 0 0 1 5 16 41 71 89 93 91 89 90 91 90 91 94 95 95 95 94 90 85 72 49 33 36 42 32 14 8 8 8 7 7 5 6 7 8 10 12 13
0 0 0 0 0 0 0 0 0 2 4 9 21 46 72 86 85 78 73 70 72 77 82 87 90 88 87 86 81 77 66 41 24 28 39 34 18 8 4 4 3 1 1 1 1 1 1 1 1
0 0 0 0 0 0 0 0 2 7 13 20 32 50 69 76 71 61 49 44 48 56 67 78 84 82 80 76 66 63 60 41 26 35 54 55 35 17 10 6 3 1 0 0 0 0 0 0 0
0 0 0 0 0 0 0 1 5 14 27 39 47 55 60 55 47 38 29 26 29 35 49 66 77 78 77 73 65 65 63 51 45 56 71 69 48 28 19 14 8 3 1 0 0 0 1 1 1
0 0 0 0 0 0 0 1 8 23 41 53 55 52 44 32 23 19 17 17 17 22 35 52 65 73 76 78 80 80 75 67 67 74 77 69 51 37 33 30 23 12 3 0 0 0 1 2 3
0 0 0 0 0 0 0 2 12 32 50 53 45 36 27 17 11 10 9 10 10 14 23 37 49 59 68 76 84 90 89 84 82 82 80 70 56 50 51 51 44 27 11 3 0 0 1 2 3
0 0 0 0 0 0 0 4 19 37 45 39 27 19 14 9 6 5 4 5 6 7 12 20 29 39 47 57 70 81 88 89 89 88 86 78 69 66 68 67 58 40 21 8 2 0 0 2 3
0 0 0 0 0 0 3 13 25 29 26 18 11 6 5 3 2 1 2 2 3 3 4 7 13 20 26 34 45 58 70 78 84 90 92 90 86 84 81 75 63 48 31 17 8 3 2 2 3
0 0 0 0 0 0 6 21 28 22 11 5 2 1 1 0 0 0 0 1 1 1 1 1 4 8 11 16 23 31 41 51 61 73 83 89 93 93 89 83 73 61 46 31 19 11 6 3 2
0 0 0 0 0 0 4 15 25 18 6 1 0 0 0 0 0 0 0 0 0 0 0 0 1 2 2 4 7 11 16 23 32 44 56 68 78 84 88 89 86 78 66 49 34 22 11 4 2
0 0 0 0 0 0 0 6 13 11 3 0 0 0 0 0 0 0 0 0 0 0 0 0 0 0 0 0 1 2 3 6 10 18 26 36 47 59 71 82 87 86 77 65 51 32 14 4 1
0 0 0 0 0 0 0 2 5 4 1 0 0 0 0 0 0 0 0 0 0 0 0 0 0 0 0 0 0 1 1 1 2 5 10 17 25 36 51 70 83 84 79 73 61 38 16 5 1

GEFSSGP_con_probscp_030.txt.gz
Probability
0 0 0 0 0 0 0 0 0 0 0 0 0 0 0 0 0 0 0 0 0 0 0 0 0 1 0 0 0 0 0 0 0 0 0 0 0 0 0 0 0 0 0 0 0 0 0 0 0
0 0 0 0 0 0 0 0 0 0 0 0 0 0 0 0 0 0 0 0 0 0 0 1 2 2 1 0 0 0 0 0 0 0 0 0 0 0 0 0 0 0 0 0 0 0 0 0 0
0 0 0 0 0 0 0 0 0 0 0 0 0 0 0 0 0 0 0 0 0 0 0 2 5 4 1 0 0 0 0 0 0 0 0 0 0 0 0 0 0 0 0 0 0 0 0 0 0
0 0 0 0 0 0 0 0 0 0 0 0 0 0 0 0 0 0 0 0 0 0 0 3 6 5 1 0 0 0 0 0 0 0 0 0 0 0 0 0 0 0 0 0 0 0 0 0 0
0 0 0 0 0 0 0 0 0 0 0 0 0 0 0 0 0 0 0 0 0 0 0 2 6 6 3 2 2 1 0 0 0 0 0 0 0 0 0 0 0 0 0 0 0 0 0 0 0
0 0 0 0 0 0 0 0 0 0 0 0 0 0 0 1 1 1 0 0 0 0 0 1 5 7 7 6 5 3 1 0 0 0 0 0 0 0 0 0 0 0 0 0 0 0 0 0 0
0 0 0 0 0 0 0 0 1 0 0 0 0 0 0 1 2 1 0 0 0 0 0 1 5 9 9 8 7 5 2 0 0 0 0 0 0 0 0 0 0 0 0 0 0 0 0 0 0
0 0 0 0 0 0 0 0 0 0 0 0 0 0 0 2 4 4 4 3 2 1 1 4 9 11 10 8 7 4 2 0 0 0 0 0 0 0 0 0 0 0 0 0 0 0 0 0 0
0 0 0 0 0 0 0 0 0 0 0 0 0 1 3 6 11 14 16 17 14 8 4 8 16 18 16 12 8 5 2 0 0 0 0 0 0 0 0 0 0 0 0 0 0 0 0 1 1
0 0 0 0 0 0 0 0 0 1 1 0 1 3 8 15 19 25 33 39 36 25 15 15 22 28 26 19 12 7 5 2 1 0 0 0 0 0 0 0 0 0 0 0 0 1 3 6 8
0 0 0 0 0 0 0 0 1 2 2 1 2 7 16 23 26 32 46 59 60 49 36 27 26 30 29 20 13 11 9 7 5 2 0 0 0 0 0 0 0 1 2 3 5 9 13 16 20
0 0 0 0 0 0 0 0 1 2 3 4 6 11 20 26 31 37 50 65 73 70 57 42 31 27 23 16 14 14 12 10 9 6 4 4 4 2 1 0 1 2 4 6 10 16 19 21 21
0 0 0 0 0 0 0 0 1 3 8 13 14 15 18 23 32 43 55 66 74 74 66 54 41 31 22 18 18 19 18 16 16 14 15 21 22 14 5 1 1 2 4 6 8 11 14 14 12
0 0 0 0 0 0 0 0 1 6 19 27 22 17 16 21 36 52 61 65 67 66 63 59 52 43 35 33 34 36 38 39 38 35 38 47 46 29 11 2 1 1 2 2 2 3 4 4 5
0 0 0 0 0 0 0 0 1 11 29 36 27 19 19 28 44 57 61 59 56 55 55 55 53 51 51 54 59 64 67 69 65 59 60 63 55 34 13 3 0 0 0 0 0 1 1 1 1
0 0 0 0 0 0 0 0 1 13 30 35 28 24 29 40 49 53 48 44 41 41 42 44 46 50 56 63 73 80 83 80 72 65 61 57 46 28 12 3 1 0 0 0 0 0 0 0 0
0 0 0 0 0 0 0 2 5 15 28 34 34 37 44 52 53 44 33 28 26 25 26 28 31 39 48 57 67 74 73 64 55 49 44 38 30 19 8 3 1 0 0 0 0 0 0 0 0
0 0 0 0 0 0 2 6 11 19 30 40 46 50 54 55 47 33 22 19 16 13 13 15 17 23 33 42 49 52 47 37 30 27 25 20 13 8 4 1 0 0 0 0 0 0 0 0 0
0 0 0 0 0 0 2 6 9 16 29 42 50 53 53 45 32 20 14 12 9 6 6 7 8 10 16 24 28 27 23 16 11 11 10 7 3 2 1 0 0 0 0 0 0 0 0 0 0
0 0 0 0 0 0 1 2 3 7 17 30 40 43 38 28 17 9 6 5 4 3 2 2 2 3 5 9 12 11 9 6 3 3 2 1 0 0 0 0 0 0 0 0 0 0 0 0 0
0 0 0 0 0 0 0 0 0 2 7 17 24 25 20 13 7 3 1 1 1 1 1 0 0 0 1 3 5 6 4 2 1 0 0 0 0 0 0 0 0 0 0 0 0 0 0 0 0
0 0 0 0 0 0 0 0 0 1 3 7 10 10 8 4 2 0 0 0 1 1 0 0 0 0 0 1 3 4 3 1 0 0 0 0 0 0 1 1 1 0 0 0 0 0 0 0 0
0 0 0 0 0 0 0 0 0 1 1 2 3 3 2 1 0 0 0 0 0 0 0 0 0 0 0 1 2 2 2 1 1 1 1 0 0 1 1 2 2 1 1 0 0 0 0 0 0
0 0 0 0 0 0 0 0 0 0 0 0 0 0 0 0 0 0 0 0 0 0 0 0 0 0 0 0 0 0 0 1 1 2 1 0 1 2 3 3 3 2 2 1 0 0 0 0 0
0 0 0 0 0 0 0 0 0 0 0 0 0 0 0 0 0 0 0 0 0 0 0 0 0 0 0 0 0 0 0 0 1 1 1 0 1 2 2 2 2 2 3 2 1 0 0 0 0
0 0 0 0 0 0 0 0 0 0 0 0 0 0 0 0 0 0 0 0 0 0 0 0 0 0 0 0 0 0 0 0 0 0 0 0 0 1 1 1 0 1 3 4 3 1 0 0 0
0 0 0 0 0 0 0 0 0 0 0 0 0 0 0 0 0 0 0 0 0 0 0 0 0 0 0 0 0 0 0 0 0 0 0 0 0 0 0 0 0 1 2 4 4 2 1 0 0
0 0 0 0 0 0 0 0 0 0 0 0 0 0 0 0 0 0 0 0 0 0 0 0 0 0 0 0 0 0 0 0 0 0 0 0 0 0 0 0 0 0 1 2 2 2 1 0 0
0 0 0 0 0 0 0 0 0 0 0 0 0 0 0 0 0 0 0 0 0 0 0 0 0 0 0 0 0 0 0 0 0 0 0 0 0 0 0 0 0 0 0 0 0 1 1 0 0
0 0 0 0 0 0 0 0 0 0 0 0 0 0 0 0 0 0 0 0 0 0 0 0 0 0 0 0 0 0 0 0 0 0 0 0 0 0 0 0 0 0 0 0 0 0 0 0 0

GEFSSGP_con_probscp_036.txt.gz
Probability
0 0 0 0 0 0 0 0 0 0 0 0 0 0 0 1 0 0 0 0 0 0 0 1 2 2 1 0 0 0 0 0 0 0 0 0 0 0 0 0 0 0 0 0 0 0 0 0 0
0 0 0 0 0 0 0 0 0 0 0 0 0 0 0 1 0 0 0 0 0 0 0 2 5 6 3 0 0 0 0 0 0 0 0 0 0 0 0 0 0 0 0 0 0 0 0 0 0
0 0 0 0 0 0 0 0 0 0 0 0 0 0 0 0 0 0 0 0 0 0 0 5 13 15 8 2 0 0 0 0 0 0 0 0 0 0 0 0 0 0 0 0 0 0 0 0 0
0 0 0 0 0 0 0 0 0 0 0 0 0 0 0 0 0 0 0 0 1 2 1 8 22 26 16 5 0 0 0 0 0 0 0 0 0 0 0 0 0 0 0 0 0 0 0 0 0
0 0 0 0 0 0 0 0 0 0 0 0 0 0 0 0 0 0 0 0 1 3 3 12 28 35 26 14 5 2 1 1 1 0 0 0 0 0 0 0 0 0 0 0 0 0 0 0 0
0 0 0 0 0 0 0 0 0 0 0 0 0 0 0 0 0 0 0 0 1 4 8 17 32 41 38 28 18 12 9 6 4 2 1 0 0 0 0 0 0 0 0 0 0 0 0 0 0
0 0 0 0 0 0 0 0 0 0 0 0 0 0 0 0 0 0 0 0 2 8 16 26 37 45 46 40 31 25 21 16 11 7 4 1 0 0 0 0 0 0 0 0 0 0 0 0 0
0 0 0 0 0 0 0 0 0 0 0 0 0 0 0 1 1 1 1 2 6 15 25 34 43 50 51 46 40 35 30 25 18 12 7 3 1 0 0 0 0 0 0 0 0 0 0 0 0
0 0 0 0 0 0 0 0 0 0 0 0 0 1 5 9 10 7 5 7 13 22 32 41 50 56 57 54 47 41 37 31 24 16 10 6 2 1 0 0 0 0 0 0 0 0 0 0 1
0 0 0 0 0 0 0 0 0 0 0 0 1 4 15 25 27 21 15 15 20 27 36 45 52 59 62 60 55 49 45 40 33 25 18 13 7 3 1 1 0 0 0 0 0 0 0 1 3
0 0 0 0 0 0 0 0 0 0 0 0 1 9 27 43 47 40 33 29 29 33 40 47 53 57 62 62 57 52 51 50 47 39 32 25 17 10 7 5 2 0 0 0 1 2 2 1 2
0 0 0 0 0 0 0 0 0 0 1 2 5 15 33 47 52 49 45 41 39 41 44 49 53 55 58 59 53 50 53 55 56 53 48 42 33 21 14 11 6 2 2 2 3 5 4 2 1
0 0 0 0 0 0 0 0 0 1 2 6 13 22 32 38 39 39 39 41 44 45 44 45 49 50 50 49 44 43 48 52 57 60 60 56 46 31 19 12 7 4 4 4 4 5 6 4 3
0 0 0 0 0 0 0 1 3 4 6 12 21 28 31 29 24 23 26 31 38 41 37 35 36 37 36 34 31 31 37 45 52 59 60 56 45 30 18 10 6 5 5 4 4 4 5 5 4
0 0 0 0 0 0 1 4 8 11 13 19 26 30 31 25 17 14 15 20 27 30 28 24 22 22 22 21 20 21 28 37 46 53 54 47 35 22 14 10 7 5 5 4 3 3 3 2 2
0 0 0 0 0 0 1 4 10 16 19 23 25 25 24 18 13 11 11 12 15 18 16 12 11 12 14 15 15 18 25 33 40 46 47 41 30 18 12 10 8 5 5 4 3 2 1 1 0
0 0 0 0 0 0 1 3 6 11 15 17 16 14 12 11 9 8 7 7 8 7 5 4 5 7 9 10 12 15 19 25 30 34 36 34 27 18 13 10 7 4 4 3 3 2 1 0 0
0 0 0 0 0 0 1 2 2 3 5 7 7 6 6 5 5 4 3 3 3 2 1 1 2 3 5 5 6 8 9 12 16 19 22 24 21 16 13 9 5 3 3 3 2 1 0 0 0
0 0 0 0 0 0 0 1 1 0 1 2 3 3 3 2 1 0 0 1 1 0 0 0 0 1 1 2 2 2 2 4 6 8 11 13 13 12 9 6 4 3 3 2 1 0 0 0 0
0 0 0 0 0 0 0 0 0 0 0 1 1 1 1 0 0 0 0 0 0 0 0 0 0 0 0 0 0 0 0 1 2 3 4 5 6 6 5 3 1 1 2 1 0 0 0 0 0
0 0 0 1 0 0 0 0 0 0 0 0 0 0 1 0 0 0 0 0 0 0 0 0 0 0 0 0 0 0 0 0 1 1 1 0 1 2 2 1 0 0 0 0 0 0 0 0 0
0 0 1 2 1 0 0 0 0 0 0 0 0 0 0 0 0 0 0 0 0 0 0 0 0 0 0 0 0 0 0 0 0 0 0 0 0 0 0 0 0 0 0 0 0 0 0 0 0
0 0 0 1 0 0 0 0 0 0 0 0 0 0 0 0 0 0 0 0 0 0 0 0 0 0 0 0 0 0 0 0 0 0 0 0 0 0 0 0 0 0 0 0 0 0 0 0 0
0 0 0 0 0 0 0 0 0 0 0 0 0 0 0 0 0 0 0 0 0 0 0 0 0 0 0 0 0 0 0 0 0 0 0 0 0 0 0 0 0 0 0 0 0 0 0 0 0
0 0 0 0 0 0 0 0 0 0 0 0 0 0 0 0 0 0 0 0 0 0 0 0 0 0 0 0 0 0 0 0 0 0 0 0 0 0 0 0 0 0 0 0 0 0 0 0 0
0 0 0 0 0 0 0 0 0 0 0 0 0 0 0 0 0 0 0 0 0 0 0 0 0 0 0 0 0 0 0 0 0 0 0 0 0 0 0 0 0 0 0 0 0 0 0 0 0
0 0 0 0 0 0 0 0 0 0 0 0 0 0 0 0 0 0 0 0 0 0 0 0 0 0 0 0 0 0 0 0 0 0 0 0 0 0 0 0 0 0 0 0 0 0 0 0 0
0 0 0 0 0 0 0 0 0 0 0 0 0 0 0 0 0 0 0 0 0 0 0 0 0 0 0 0 0 0 0 0 0 0 0 0 0 0 0 0 0 0 0 0 0 0 0 0 0
0 0 0 0 0 0 0 0 0 0 0 0 0 0 0 0 0 0 0 0 0 0 0 0 0 0 0 0 0 0 0 0 0 0 0 0 0 0 0 0 0 0 0 0 0 0 0 0 0
0 0 0 0 0 0 0 0 0 0 0 0 0 0 0 0 0 0 0 0 0 0 0 0 0 0 0 0 0 0 0 0 0 0 0 0 0 0 0 0 0 0 0 0 0 0 0 0 0

GEFSSGP_con_probscp_042.txt.gz
Probability
0 0 0 0 0 0 0 0 0 0 0 0 0 0 0 0 0 0 0 0 0 0 0 0 0 0 0 0 0 0 0 0 0 0 0 0 0 0 0 0 0 0 0 0 0 0 0 0 0
0 0 0 0 0 0 0 0 0 0 0 0 0 0 0 0 0 0 0 0 0 0 0 0 0 0 0 0 0 0 0 0 0 0 0 0 0 0 0 0 0 0 0 0 0 0 0 0 0
0 0 0 0 0 0 0 0 0 0 0 0 0 0 0 0 0 0 0 0 0 0 0 0 0 0 0 0 0 0 0 0 0 0 0 0 0 0 0 0 0 0 0 0 0 0 0 0 0
0 0 0 0 0 0 0 0 0 0 0 0 0 0 0 0 0 0 0 0 0 0 0 0 0 0 0 0 0 0 0 0 0 0 0 0 0 0 0 0 0 0 0 0 0 0 0 0 0
0 0 0 0 0 0 0 0 0 0 0 0 0 0 0 0 0 0 0 0 0 0 0 0 1 1 1 0 0 0 0 0 0 0 0 0 0 0 0 0 0 0 0 0 0 0 0 0 0
0 0 0 0 0 0 0 0 0 0 0 0 0 0 0 0 0 0 0 0 0 0 0 1 2 2 2 1 1 1 1 1 1 1 0 0 0 1 1 1 0 0 0 0 0 0 0 0 0
0 0 0 0 0 0 0 0 0 0 0 0 0 0 0 1 2 2 2 1 0 1 1 2 3 4 3 2 2 3 4 5 5 3 3 2 3 4 5 4 2 1 1 1 1 0 1 1 1
0 0 0 0 0 0 0 0 0 0 0 0 0 1 3 6 10 12 10 6 5 4 3 4 6 7 6 6 8 9 11 13 13 12 11 10 8 9 10 10 9 7 4 3 2 2 3 3 3
0 0 0 0 0 0 0 0 0 0 0 0 1 2 7 15 22 26 25 20 16 12 10 11 15 17 16 16 21 23 26 30 30 28 27 24 20 18 19 22 24 20 13 9 7 5 5 5 4
0 0 0 0 0 0 0 0 0 0 1 2 3 4 8 18 30 36 38 37 33 28 23 22 27 31 31 33 39 42 47 54 55 52 52 51 46 42 39 45 50 42 29 23 17 13 9 7 6
0 0 0 0 0 0 0 0 1 2 4 6 7 8 9 17 30 39 46 50 50 45 37 33 38 43 45 49 55 57 61 72 77 76 78 80 79 74 69 72 75 68 56 48 43 34 22 15 14
0 0 0 0 0 0 0 1 3 7 10 13 17 19 20 25 32 40 48 56 57 53 45 42 47 50 53 58 62 61 63 70 77 81 85 89 92 90 88 89 90 87 80 74 71 60 40 28 24
0 0 0 0 0 0 0 2 7 12 17 23 30 38 42 44 46 48 51 55 55 50 45 46 50 51 51 56 59 57 57 59 64 70 75 81 87 90 91 93 95 94 89 85 81 69 52 41 36
0 0 0 0 0 0 1 4 9 15 21 28 37 48 54 56 56 55 54 54 54 51 48 47 47 44 43 45 48 50 50 50 52 57 64 70 77 82 87 91 92 91 87 84 79 68 58 49 42
0 0 0 0 0 0 1 4 9 14 18 23 29 36 42 46 47 46 46 48 50 51 51 46 38 34 34 34 35 37 39 40 41 45 51 56 61 67 77 85 87 87 85 84 79 72 63 51 40
0 0 0 0 0 0 1 3 7 9 11 13 14 16 20 24 25 25 27 32 37 42 43 38 29 26 25 25 24 24 25 26 28 32 35 38 43 51 64 75 78 80 82 80 74 69 62 49 39
0 0 0 0 0 0 1 3 5 6 7 6 5 3 5 7 8 9 11 16 21 26 28 26 22 20 19 18 16 14 14 16 19 22 22 23 29 39 50 59 63 67 72 72 65 61 58 49 41
0 0 0 0 0 0 1 3 5 5 5 4 2 0 0 1 1 1 3 6 11 16 18 17 17 16 15 14 12 10 9 12 16 17 15 14 18 25 33 40 44 49 57 59 55 51 49 43 36
0 0 0 0 0 0 0 1 2 2 2 2 1 0 0 1 1 0 1 3 6 10 10 9 9 11 12 13 12 10 9 13 15 14 12 8 8 12 18 22 28 37 45 47 43 38 32 27 23
0 0 0 0 0 0 0 0 0 0 0 1 1 0 0 0 1 0 0 1 3 5 4 3 3 4 6 9 10 9 9 10 10 9 7 5 3 4 6 10 17 27 35 36 32 25 19 14 12
0 0 0 0 0 0 0 0 0 0 0 0 0 0 0 0 0 0 0 0 1 2 1 0 0 0 1 3 4 4 5 6 5 3 3 2 1 2 3 6 11 19 26 29 25 18 13 10 9
0 0 0 0 0 0 0 0 0 0 0 0 0 0 0 0 0 0 0 0 1 1 1 0 0 0 0 0 1 1 2 3 2 1 1 0 0 1 1 3 8 13 19 23 21 15 11 9 8
0 0 0 0 0 0 0 0 0 0 0 0 0 0 0 0 0 0 0 0 0 0 0 0 0 0 0 0 0 0 0 1 1 0 0 0 0 0 0 1 4 8 12 17 19 16 13 10 7
0 0 0 0 0 0 0 1 2 1 0 0 0 0 0 0 0 0 0 0 0 0 0 0 0 0 0 0 0 0 0 0 0 0 0 0 0 0 0 0 1 3 6 10 16 17 15 13 11
0 0 0 0 0 0 0 2 4 2 0 0 0 0 0 0 0 0 0 0 0 0 0 0 0 0 0 0 0 0 0 0 0 0 0 0 0 0 0 0 0 1 2 6 11 14 15 18 19
0 0 0 0 0 0 0 2 3 2 0 0 0 0 0 0 0 0 0 0 0 0 0 0 0 0 0 0 0 0 0 0 0 0 0 0 0 0 0 0 0 0 0 2 6 9 13 19 22
0 0 0 0 0 0 0 0 0 0 0 0 0 0 0 0 0 0 0 0 0 0 0 0 0 0 0 0 0 0 0 0 0 0 0 0 1 0 0 0 0 0 0 0 2 4 8 14 16
0 0 0 0 0 0 0 0 0 0 0 0 0 0 0 0 0 0 0 0 0 0 0 0 0 0 0 0 0 0 0 0 0 0 0 0 0 0 0 0 0 0 0 0 0 1 3 7 9
0 0 0 0 0 0 0 0 0 0 0 0 0 0 0 0 0 0 0 0 0 0 0 0 0 0 0 0 0 0 0 0 0 0 0 0 0 0 0 0 0 0 0 0 0 0 0 2 4
0 0 0 0 0 0 0 0 0 0 0 0 0 0 0 0 0 0 0 0 0 0 0 0 0 0 0 0 0 0 0 0 0 0 0 0 0 0 0 0 0 0 0 0 0 0 0 0 1

GEFSSGP_con_probscp_048.txt.gz
Probability
0 0 0 0 0 0 0 0 0 0 0 0 0 0 0 0 0 0 3 18 32 25 10 5 4 1 0 0 0 0 0 0 0 0 0 0 0 0 0 0 0 0 0 0 0 0 0 0 0
0 0 0 0 0 0 0 0 0 0 0 0 0 0 0 0 0 0 4 18 27 19 7 3 1 0 0 0 0 0 0 0 0 0 0 0 0 0 0 0 0 0 0 0 0 0 0 0 0
0 0 0 0 1 0 0 0 0 0 0 0 0 0 0 0 0 0 5 16 20 12 4 1 0 0 0 0 0 0 0 0 0 0 0 0 0 0 0 0 0 0 0 0 0 0 0 0 0
0 0 0 0 0 0 0 0 0 0 0 0 1 1 0 0 0 0 4 12 15 10 6 2 0 0 0 0 0 0 0 0 0 0 0 0 0 0 0 0 0 1 2 2 1 0 0 0 0
0 0 0 0 0 0 0 0 0 0 0 1 3 5 4 1 0 0 3 9 12 14 10 4 1 0 0 0 0 0 0 1 1 2 1 1 1 1 2 2 3 4 6 5 3 2 1 0 0
0 0 0 0 0 0 0 0 0 0 0 1 4 9 8 3 0 0 1 4 12 22 21 9 2 1 0 0 0 0 0 2 3 4 4 4 4 4 5 6 9 11 12 12 9 6 4 2 2
0 0 0 0 0 0 0 0 0 0 1 2 6 11 10 4 1 0 1 3 15 32 32 14 3 2 1 0 0 0 0 1 3 4 5 5 5 5 8 14 20 22 24 26 23 17 13 11 9
0 0 0 0 0 0 0 0 0 2 5 9 16 20 15 8 3 2 2 4 17 37 37 17 6 4 2 2 3 3 1 0 1 2 4 4 4 6 11 22 31 37 42 45 42 35 31 27 23
0 0 0 0 0 0 0 0 1 5 13 20 25 28 21 12 8 6 6 6 17 34 36 24 20 18 10 12 17 12 6 6 6 8 13 14 10 9 19 34 49 56 61 64 61 55 52 46 39
0 0 0 0 0 0 0 1 3 11 24 32 33 30 24 18 16 16 15 16 23 31 33 37 47 43 30 33 40 27 19 28 29 27 38 44 35 25 29 51 72 77 79 81 79 73 68 60 52
0 0 0 0 0 0 1 4 12 24 37 44 45 41 35 32 31 32 33 37 40 36 36 51 69 70 56 55 58 44 41 57 59 54 65 74 70 55 48 63 84 91 91 91 91 86 79 68 59
0 0 0 0 0 0 3 11 25 40 48 53 58 60 58 56 56 58 60 64 64 54 50 63 79 83 75 69 68 65 66 74 76 75 80 88 90 82 72 72 82 90 92 92 91 91 86 74 65
0 0 0 0 0 1 5 13 29 45 52 57 67 74 77 79 80 82 83 84 81 72 67 74 84 87 82 77 76 77 77 77 80 83 87 90 91 91 86 79 77 80 83 85 86 88 87 81 75
0 0 0 0 0 1 5 12 27 42 49 56 67 76 82 88 91 92 92 91 88 82 79 81 84 85 83 81 79 76 74 77 81 85 87 86 86 87 87 82 76 72 72 76 79 81 82 82 81
0 0 0 0 0 0 4 12 24 36 43 46 53 61 70 79 86 87 88 87 86 84 84 82 80 79 79 79 76 70 68 73 79 82 82 80 80 80 80 80 76 69 66 67 68 67 68 70 70
0 0 0 0 0 0 4 13 23 29 33 32 32 36 46 57 65 69 70 73 76 78 80 79 74 73 73 71 69 63 61 65 69 71 71 69 67 65 66 68 68 64 59 57 53 50 50 50 48
0 0 0 0 0 1 6 16 21 22 23 20 17 17 23 31 38 42 44 49 56 62 65 65 64 65 63 61 60 58 56 56 56 56 56 53 48 46 48 53 55 54 49 45 40 37 37 34 30
0 0 0 0 0 2 9 16 17 15 14 13 11 9 10 13 17 19 21 24 30 38 44 47 50 53 53 52 51 50 48 46 42 42 43 39 34 33 36 40 44 42 37 32 30 28 25 22 21
0 0 0 0 0 3 7 11 10 7 6 8 8 7 6 6 5 6 7 8 11 18 27 32 35 37 39 40 37 34 31 30 28 30 32 29 24 25 27 29 32 31 27 23 20 18 14 11 12
0 0 0 0 0 1 2 5 5 2 1 3 4 4 3 2 1 0 1 3 5 8 14 18 20 22 25 26 23 18 15 13 14 18 20 18 14 15 17 18 20 20 19 17 13 9 7 6 6
0 0 0 0 0 0 0 3 6 4 2 1 1 1 1 0 0 0 1 3 4 5 7 9 11 14 18 19 14 11 8 5 6 9 11 8 5 6 8 10 10 11 13 13 10 7 5 4 3
0 0 0 0 0 0 0 4 9 9 4 1 0 0 0 0 0 0 1 3 4 4 5 8 12 16 20 18 13 9 5 2 1 3 5 4 1 1 3 5 6 6 7 9 7 6 6 5 3
0 0 0 0 0 0 0 3 8 10 6 2 1 1 0 0 0 0 0 1 1 1 3 7 14 18 18 15 11 7 4 1 0 0 1 1 0 0 1 2 3 3 4 5 5 5 6 6 5
0 0 0 1 1 1 0 1 3 5 6 5 5 2 0 0 0 0 0 1 1 1 1 4 10 13 11 9 6 4 2 1 0 0 0 0 0 0 0 1 1 1 2 2 2 3 5 6 5
0 0 0 1 1 1 0 1 2 4 5 7 6 2 0 0 0 1 1 1 2 2 2 2 4 5 4 3 2 1 1 0 0 0 0 0 0 0 0 1 1 1 1 1 1 1 2 3 4
0 0 0 0 0 0 1 2 4 4 4 5 4 1 0 0 0 0 0 1 2 1 1 1 2 1 0 0 0 0 0 0 0 0 0 0 0 0 0 1 2 2 1 0 0 0 1 1 2
0 0 0 0 0 0 1 3 3 2 2 1 1 0 0 0 0 0 0 0 0 0 0 0 0 0 0 0 0 0 0 0 0 0 0 0 0 0 0 1 1 1 1 1 1 1 1 2 2
0 0 0 0 0 0 1 2 2 1 0 0 0 0 0 0 0 0 0 0 0 0 0 0 0 0 0 0 0 0 0 0 0 0 0 0 0 0 0 0 0 0 0 1 2 1 1 2 3
0 0 0 0 0 0 0 0 0 0 0 0 0 0 0 0 0 0 0 0 0 0 0 0 0 0 0 0 0 0 0 0 0 0 0 0 0 0 0 0 0 0 0 1 2 1 1 1 2
0 0 0 0 0 0 0 0 0 0 0 0 0 0 0 0 0 0 0 0 0 0 0 0 0 0 0 0 0 0 0 0 0 0 0 0 0 0 0 0 0 0 0 0 1 1 0 0 1

GEFSSGP_con_probscp_054.txt.gz
Probability
0 0 0 0 0 0 0 0 0 0 0 0 0 0 0 0 0 0 0 0 0 0 0 1 1 1 1 1 0 0 0 0 0 0 0 0 0 0 0 0 0 0 0 0 0 0 0 0 0
0 0 0 0 0 0 0 0 0 0 0 0 0 0 0 0 0 0 0 0 0 0 0 0 1 1 2 2 1 1 0 0 0 0 0 0 0 0 0 0 0 0 0 0 0 0 0 0 0
0 0 0 0 0 0 0 0 1 2 1 0 0 0 0 0 0 1 1 1 0 0 0 0 1 3 4 4 3 2 1 1 0 0 0 0 0 0 0 0 0 0 0 0 0 0 0 0 0
0 0 0 0 0 0 0 1 3 6 5 1 0 0 0 1 2 3 2 1 0 0 0 0 1 3 5 5 4 4 3 2 1 0 0 0 0 0 0 0 0 0 0 0 0 0 0 0 0
0 0 0 0 0 0 1 3 8 12 11 5 1 1 1 2 5 4 1 0 0 0 0 0 1 2 4 5 5 5 5 3 2 1 0 0 0 0 0 0 0 0 1 2 1 0 0 0 0
0 0 0 0 0 0 1 5 12 20 22 14 6 4 4 5 6 4 2 1 0 0 0 0 0 1 3 5 6 6 5 4 2 1 1 0 0 0 0 1 1 1 2 4 3 2 1 1 1
0 0 0 0 0 0 1 6 17 28 33 26 13 5 5 7 7 6 5 3 2 1 0 0 0 1 2 4 5 6 4 3 1 1 1 1 1 0 1 2 2 2 4 7 6 5 5 6 5
0 0 0 0 0 0 1 9 21 32 37 33 20 10 9 10 12 14 14 10 6 3 2 1 1 1 1 2 4 5 4 2 0 0 2 2 2 0 1 3 5 6 8 12 14 13 14 14 13
0 0 0 0 0 1 5 13 23 34 42 41 31 22 20 20 23 29 30 23 13 7 4 2 1 1 1 2 3 4 3 2 1 1 3 3 2 1 2 4 9 12 15 20 25 28 28 26 24
0 0 0 0 1 5 12 18 26 38 50 52 44 37 37 36 37 43 46 38 25 14 7 6 5 4 4 6 7 6 5 4 4 4 4 6 6 5 4 5 10 17 23 29 36 42 45 43 41
0 0 0 0 3 8 17 27 36 47 57 59 56 54 55 55 53 57 59 53 42 30 23 21 20 18 16 17 17 14 12 11 9 8 8 10 12 10 8 8 13 23 33 40 45 51 57 59 58
0 0 0 1 5 12 24 39 54 60 62 66 69 71 73 72 71 71 71 66 59 53 48 46 44 40 35 34 33 29 24 21 18 16 15 17 19 18 17 18 22 32 41 47 52 55 59 61 62
0 0 0 3 10 20 35 53 66 68 67 70 76 80 83 83 81 80 78 75 72 69 66 64 61 56 50 48 48 45 41 37 34 30 27 28 30 31 31 31 31 33 36 41 46 46 45 46 47
0 0 1 4 13 25 42 58 64 62 63 65 69 73 76 78 79 79 78 76 74 70 67 64 60 54 49 48 50 51 49 45 44 41 36 35 38 39 37 34 29 24 23 25 26 25 25 26 26
0 0 1 3 8 19 37 50 49 47 50 53 54 56 59 61 63 66 66 64 60 56 53 51 47 41 38 36 38 40 39 37 36 36 33 32 32 31 27 23 19 15 14 13 10 9 9 11 11
0 0 0 1 2 9 24 34 31 29 33 36 36 39 40 40 40 42 42 41 40 36 33 32 31 29 26 23 23 24 25 24 24 24 24 25 23 18 13 11 10 9 8 7 5 3 2 3 2
0 0 0 0 0 3 12 18 17 15 18 19 18 21 23 22 20 20 19 20 20 17 14 14 15 15 14 13 12 13 14 16 17 16 15 15 13 8 4 4 4 4 3 2 2 1 0 0 0
0 0 0 0 1 3 6 10 11 9 9 8 8 9 10 9 8 7 6 6 5 4 3 3 3 4 4 4 4 4 5 7 9 10 8 6 4 3 1 1 1 1 0 0 1 1 0 0 0
0 0 0 0 2 5 7 8 9 7 5 5 4 3 3 3 2 2 1 1 0 0 0 0 0 0 0 0 0 0 0 2 3 4 4 2 1 1 1 0 0 0 0 0 1 1 0 0 0
0 0 0 0 1 4 6 7 7 4 3 3 3 1 0 0 0 0 0 0 0 0 0 0 0 0 0 0 0 0 0 0 0 1 1 1 0 0 0 0 0 0 0 0 1 1 0 0 0
0 0 0 0 0 1 3 4 4 2 1 1 1 1 0 0 0 0 0 0 0 0 0 0 0 0 0 0 0 0 0 0 0 0 0 0 0 0 0 0 0 0 0 0 0 0 0 0 0
0 0 0 0 0 0 1 2 1 1 0 0 0 0 0 0 0 0 0 0 0 0 0 0 0 0 0 0 0 0 0 0 0 0 0 0 0 0 0 0 0 0 0 0 0 0 0 0 0
0 0 0 0 0 0 0 0 0 0 0 0 0 0 0 0 0 0 0 0 0 0 0 0 0 0 0 0 0 0 0 0 0 0 0 0 0 0 0 0 0 0 0 0 0 0 0 0 0
0 0 0 0 0 0 0 0 0 0 0 0 0 0 0 0 0 0 0 0 0 0 0 0 0 0 0 0 0 0 0 0 0 0 0 0 0 0 0 0 0 0 0 0 0 0 0 0 0
0 0 0 0 0 0 0 0 0 0 0 0 0 0 0 0 0 0 0 0 0 0 0 0 0 0 0 0 0 0 0 0 0 0 0 0 0 0 0 0 0 0 0 0 0 0 0 0 0
0 0 0 0 0 0 0 0 0 0 0 0 0 0 0 0 0 0 0 0 0 0 0 0 0 0 0 0 0 0 0 0 0 0 0 0 0 0 0 0 0 0 0 0 0 0 0 0 0
0 0 0 0 0 0 0 0 0 0 0 0 0 0 0 0 0 0 0 0 0 0 0 0 0 0 0 0 0 0 0 0 0 0 0 0 0 0 0 0 0 0 0 0 0 0 0 0 0
0 0 0 0 0 0 0 0 0 0 0 0 0 0 0 0 0 0 0 0 0 0 0 0 0 0 0 0 0 0 0 0 0 0 0 0 0 0 0 0 0 0 0 0 0 0 0 0 0
0 0 0 0 0 0 0 0 0 0 0 0 0 0 0 0 0 0 0 0 0 0 0 0 0 0 0 0 0 0 0 0 0 0 0 0 0 0 0 0 0 0 0 0 0 0 0 0 0
0 0 0 0 0 0 0 0 0 0 0 0 0 0 0 0 0 0 0 0 0 0 0 0 0 0 0 0 0 0 0 0 0 0 0 0 0 0 0 0 0 0 0 0 0 0 0 0 0

GEFSSGP_con_probscp_060.txt.gz
Probability
0 0 0 0 0 0 0 0 0 0 0 0 0 2 3 2 0 0 0 0 0 0 0 0 0 0 0 0 0 0 0 0 0 0 0 0 0 0 0 0 0 0 0 0 0 0 0 0 0
0 0 0 0 0 0 0 0 0 0 0 0 1 2 4 2 1 0 0 0 0 0 0 0 0 0 0 0 0 0 1 1 1 0 0 0 0 0 0 0 0 0 0 0 0 0 0 0 0
0 0 0 0 0 0 0 0 0 0 0 0 1 3 4 3 1 0 0 1 2 1 0 1 1 0 0 0 0 0 1 2 1 0 0 0 0 0 0 0 0 0 0 0 0 0 0 0 0
0 0 0 0 0 0 0 0 0 0 0 1 2 4 4 3 1 0 0 3 5 3 1 2 2 1 0 1 1 1 2 2 1 0 0 0 0 0 0 0 0 0 0 0 0 0 0 0 0
0 0 0 0 0 0 0 1 1 1 1 1 2 3 4 3 1 0 0 2 5 5 3 2 3 2 1 1 2 3 3 3 2 1 1 0 0 0 0 0 0 0 0 0 0 0 0 0 0
0 0 0 0 0 0 1 3 4 4 3 1 1 2 3 3 2 0 0 1 3 4 3 2 3 3 2 1 2 4 6 5 3 3 3 1 0 0 0 0 0 0 0 0 0 0 0 0 0
0 0 0 0 0 1 2 4 5 4 3 1 1 2 3 3 2 1 0 0 1 1 2 2 2 4 5 3 3 5 7 6 6 6 6 4 2 1 1 1 1 0 0 0 0 1 1 0 0
0 0 0 0 0 1 2 3 3 3 3 2 1 1 4 5 6 4 2 0 0 0 1 2 2 4 7 6 6 8 9 9 9 9 8 6 5 3 2 1 1 0 0 0 0 1 2 1 1
0 0 0 0 0 0 1 2 3 5 8 9 9 11 15 18 16 9 4 1 0 0 1 2 2 4 6 7 8 11 11 12 12 10 9 7 5 3 2 2 2 2 1 1 1 3 3 3 3
0 0 0 0 0 0 1 3 6 12 19 24 26 31 36 35 28 18 10 4 2 1 1 2 2 2 4 6 8 10 12 14 14 11 10 10 9 6 4 4 4 4 2 2 4 5 6 8 9
0 0 0 0 1 2 4 11 21 28 35 39 42 46 48 44 39 30 20 13 9 7 7 7 5 4 3 5 7 8 10 13 13 11 13 17 17 13 10 10 8 6 5 5 8 9 12 15 17
0 0 1 2 5 10 19 34 46 50 53 54 54 53 51 49 46 40 31 24 21 19 17 13 9 7 6 6 7 8 8 8 10 12 16 20 21 17 14 13 13 12 11 10 12 14 17 21 22
0 1 3 9 16 26 44 59 62 61 62 64 64 62 58 54 49 42 36 33 31 26 20 15 11 9 9 9 8 7 7 7 8 13 18 19 17 15 12 13 15 17 17 16 16 17 20 22 21
1 1 4 11 20 35 55 67 63 58 58 62 65 61 56 51 44 35 31 30 27 20 13 11 10 9 8 7 7 7 7 8 9 12 15 14 12 11 11 12 14 15 15 16 16 16 17 17 16
0 1 2 6 11 25 44 55 53 48 50 55 55 50 44 39 31 23 19 18 14 8 5 7 7 7 6 5 6 7 7 7 8 9 9 9 9 9 9 10 11 11 10 10 11 11 10 9 8
0 0 0 1 3 10 22 33 34 35 42 46 41 37 33 26 18 13 10 8 5 1 1 3 4 3 3 4 5 6 5 4 5 6 5 5 5 5 6 7 7 7 5 5 4 4 4 3 3
0 0 0 0 1 4 9 15 19 24 30 31 26 24 22 17 11 8 6 4 2 1 0 1 1 1 1 1 2 3 2 2 3 3 3 2 2 2 2 3 3 3 2 1 1 1 1 1 1
0 0 0 0 0 2 5 8 12 15 17 16 12 10 9 8 7 5 3 1 1 0 0 0 0 0 0 0 0 0 0 0 1 1 1 0 0 0 0 1 1 1 0 0 0 0 1 1 1
0 0 0 0 0 1 2 5 8 9 8 5 4 2 1 1 2 1 1 0 0 0 0 0 0 0 0 0 0 0 0 0 0 0 0 0 0 0 0 0 0 0 0 0 0 0 1 2 2
0 0 0 0 0 0 1 2 3 4 2 1 1 0 0 0 0 0 0 0 0 0 0 0 0 0 0 0 0 0 0 0 0 0 0 0 0 0 0 0 0 0 0 0 0 0 1 1 1
0 0 0 0 0 0 0 1 1 1 0 0 1 0 0 0 0 0 0 0 0 0 0 0 0 0 0 0 0 0 0 0 0 0 0 0 0 0 0 0 0 0 0 0 0 0 0 0 0
0 0 0 0 0 0 0 0 0 0 0 0 0 0 0 0 0 0 0 0 0 0 0 0 0 0 0 0 0 0 0 0 0 0 0 0 0 0 0 0 0 0 0 0 0 0 0 0 0
0 0 0 0 0 0 0 0 0 0 0 0 0 0 0 0 0 0 0 0 0 0 0 0 0 0 0 0 0 0 0 0 0 0 0 0 0 0 0 0 0 0 0 0 0 0 0 0 0
0 0 0 0 0 0 0 0 0 0 0 0 0 0 0 0 0 0 0 0 0 0 0 0 0 0 0 0 0 0 0 0 0 0 0 0 0 0 0 0 0 0 0 0 0 0 0 0 0
0 0 0 0 0 0 0 0 0 0 0 0 0 0 0 0 0 0 0 0 0 0 0 0 0 0 0 0 0 0 0 0 0 0 0 0 0 0 0 0 0 0 0 0 0 0 0 0 0
0 0 0 0 0 0 0 0 0 0 0 0 0 0 0 0 0 0 0 0 0 0 0 0 0 0 0 0 0 0 0 0 0 0 0 0 0 0 0 0 0 0 0 0 0 0 0 0 0
0 0 0 0 0 0 0 0 0 0 0 0 0 0 0 0 0 0 0 0 0 0 0 0 0 0 0 0 0 0 0 0 0 0 0 0 0 0 0 0 0 0 0 0 0 0 0 0 0
0 0 0 0 0 0 0 0 0 0 0 0 0 0 0 0 0 0 0 0 0 0 0 0 0 0 0 0 0 0 0 0 0 0 0 0 0 0 0 0 0 0 0 0 0 0 0 0 0
0 0 0 0 0 0 0 0 0 0 0 0 0 0 0 0 0 0 0 0 0 0 0 0 0 0 0 0 0 0 0 0 0 0 0 0 0 0 0 0 0 0 0 0 0 0 0 0 0
0 0 0 0 0 0 0 0 0 0 0 0 0 0 0 0 0 0 0 0 0 0 0 0 0 0 0 0 0 0 0 0 0 0 0 0 0 0 0 0 0 0 0 0 0 0 0 0 0

GEFSSGP_con_probscp_066.txt.gz
Probability
0 0 0 0 0 0 0 0 0 0 0 0 0 0 0 0 0 0 0 0 0 0 0 0 0 0 0 0 0 0 0 0 0 0 0 0 0 0 0 0 0 0 0 0 0 0 0 0 0
0 0 0 0 0 0 0 0 0 1 1 1 0 0 0 0 0 0 0 0 0 0 0 0 0 0 0 1 1 1 0 0 0 0 0 0 0 0 0 0 0 0 0 0 0 0 0 0 0
0 0 0 0 0 0 0 0 0 1 2 1 0 0 0 0 0 0 0 0 0 0 0 0 0 0 1 2 2 2 1 1 1 1 0 0 0 0 0 0 0 0 0 0 0 0 0 0 0
0 0 0 0 0 0 0 0 1 1 2 1 0 0 0 0 0 0 0 0 0 0 0 0 0 0 1 2 3 2 2 2 2 1 0 0 0 0 0 0 0 0 0 0 0 0 0 0 0
0 0 0 0 0 0 0 1 3 2 1 0 0 0 0 0 0 0 0 0 0 0 0 0 0 0 1 2 2 1 2 2 2 1 0 0 0 0 0 0 0 0 0 0 0 0 0 0 0
0 0 0 0 0 0 1 4 7 7 3 1 0 0 0 1 0 0 0 0 0 0 0 0 0 0 1 2 2 2 2 2 1 1 1 1 0 0 0 0 1 1 0 0 0 0 0 0 0
0 0 0 0 0 1 2 6 11 13 9 5 3 1 2 4 2 0 0 0 0 0 0 0 0 0 1 1 1 2 3 4 4 4 5 4 1 0 1 1 2 2 1 1 1 1 0 0 0
0 0 0 0 1 3 4 6 10 15 16 13 11 10 12 13 9 5 3 2 1 0 0 0 0 0 0 0 1 3 4 5 6 6 7 6 4 2 2 3 4 4 3 3 2 2 1 0 0
0 0 0 1 3 5 5 6 8 12 18 21 23 27 30 27 19 12 10 7 4 2 1 0 0 0 0 1 3 5 5 4 5 6 7 8 7 5 6 9 10 8 6 4 3 3 3 2 2
0 0 0 1 3 5 5 6 6 9 18 28 34 41 44 38 25 16 12 10 7 4 2 1 0 1 1 3 5 8 9 8 9 11 14 16 16 14 15 19 19 14 8 6 7 7 6 7 8
0 0 0 1 2 3 4 6 9 15 26 36 41 45 46 40 30 19 15 12 8 5 3 2 1 2 3 4 5 9 14 17 20 23 25 27 26 22 22 25 25 19 15 15 17 16 12 12 16
0 0 0 0 1 2 3 6 14 27 40 46 46 47 46 43 37 31 24 17 10 6 4 2 2 4 6 7 8 10 16 21 25 27 28 29 29 26 23 26 26 23 22 25 26 24 18 18 21
0 0 0 0 0 1 1 5 16 32 45 48 48 49 51 49 46 43 36 27 18 12 7 5 6 8 10 14 15 14 16 19 20 20 20 22 24 23 22 25 26 23 23 24 25 23 22 23 24
0 0 0 0 0 0 0 4 14 28 38 42 46 50 52 49 45 43 40 34 26 18 13 11 12 13 15 19 20 16 14 15 13 12 12 14 16 17 17 20 22 20 19 20 19 19 21 23 25
0 0 0 0 0 0 0 3 11 21 29 36 42 47 46 40 34 32 32 31 27 22 18 16 15 17 18 18 17 13 11 10 9 8 7 8 8 9 9 11 13 13 13 15 15 15 18 21 24
0 0 0 0 0 0 0 3 8 14 22 30 35 37 36 29 22 19 20 22 22 21 20 17 15 18 19 17 14 11 8 8 8 7 6 5 4 3 3 5 6 6 7 8 10 11 12 15 17
0 0 0 0 0 0 0 2 5 8 15 23 26 27 26 21 16 13 15 17 17 17 17 16 16 17 16 13 11 9 8 8 7 6 5 4 2 1 2 3 3 3 3 4 4 5 6 8 8
0 0 0 0 0 0 0 1 2 5 11 17 21 20 16 14 12 11 12 12 12 12 12 11 12 12 9 6 5 6 6 5 3 3 3 2 2 2 2 2 2 2 2 1 1 1 2 2 3
0 0 0 0 0 0 0 0 1 5 10 14 15 13 10 8 9 9 8 8 8 7 6 5 5 5 3 2 2 1 1 1 0 0 1 1 1 1 1 1 1 1 1 0 0 0 0 1 1
0 0 0 0 0 0 0 0 2 6 9 9 8 7 5 5 7 7 5 4 4 3 2 1 1 1 1 1 1 0 0 0 0 0 0 0 0 0 0 0 0 0 0 0 0 0 0 0 0
0 0 0 0 0 0 0 0 1 4 6 5 4 4 4 4 4 4 3 3 2 2 1 1 1 1 2 2 1 0 0 1 1 0 0 0 0 0 0 0 0 0 0 0 0 0 0 0 0
0 0 0 0 0 0 0 0 0 1 3 3 3 3 3 3 2 1 1 1 1 1 1 2 5 7 8 6 4 2 1 2 1 0 0 0 0 0 0 0 0 0 0 0 0 0 0 0 0
0 0 0 0 0 0 0 0 0 0 1 2 2 1 1 1 1 0 0 0 0 1 1 5 11 17 17 13 9 6 3 3 2 0 0 0 0 0 0 0 0 0 0 0 0 0 0 0 0
0 0 0 0 0 0 0 0 0 0 0 1 1 0 0 0 0 0 0 0 0 1 3 7 14 21 19 14 10 7 4 2 1 0 0 0 0 0 0 0 0 0 0 0 0 0 0 0 0
0 0 0 0 0 0 0 0 0 0 0 0 0 0 0 0 0 0 0 0 1 2 4 8 12 15 13 9 6 3 2 1 1 0 0 0 0 0 0 0 0 0 0 0 0 0 0 0 0
0 0 0 0 0 0 0 0 0 0 0 0 0 0 0 0 0 0 0 1 2 3 5 7 9 8 6 4 2 1 0 0 0 0 0 0 0 0 0 0 0 0 0 0 0 0 0 0 0
0 0 0 0 0 0 0 0 0 0 0 0 0 0 0 0 0 0 0 1 3 5 6 6 6 5 3 2 1 0 0 0 0 0 0 0 0 0 0 0 0 0 0 0 0 0 0 0 0
0 0 0 0 0 0 0 0 0 0 0 0 0 0 0 0 0 0 0 1 3 4 5 4 4 3 3 1 0 0 0 0 0 0 0 0 0 0 0 0 0 0 0 0 0 0 0 0 0
0 0 0 0 0 0 0 0 0 0 0 0 0 0 0 0 0 0 1 2 2 2 2 2 2 2 2 1 0 0 0 0 0 0 0 0 0 0 0 0 0 0 0 0 0 0 0 0 0
0 0 0 0 0 0 0 0 0 0 0 0 0 0 0 0 0 1 2 2 1 0 0 1 1 1 1 0 0 0 0 0 0 0 0 0 0 0 0 0 0 0 0 0 0 0 0 0 0

GEFSSGP_con_probscp_072.txt.gz
Probability
1 1 0 1 2 2 1 0 0 0 0 0 0 0 1 3 3 1 2 6 7 4 2 2 3 4 4 4 4 4 4 4 4 4 4 4 3 2 1 1 1 0 0 0 0 1 0 0 0
1 0 0 1 3 2 1 0 0 0 0 0 0 1 2 2 2 2 3 4 4 2 1 2 4 4 5 6 6 6 6 6 6 6 6 5 5 4 3 2 2 1 1 1 1 2 1 1 1
2 1 1 1 2 1 1 1 0 0 0 0 2 3 3 2 2 2 2 2 1 1 1 2 5 6 6 6 7 8 8 8 7 6 6 6 6 6 5 4 4 3 3 3 3 3 3 2 2
5 4 2 1 0 0 0 1 1 1 2 3 7 10 7 3 3 3 2 2 2 2 2 4 6 6 6 6 7 7 8 8 7 7 6 6 6 6 6 6 6 6 6 5 4 4 4 3 3
6 5 2 0 0 0 0 1 2 4 6 8 14 16 10 5 4 3 4 4 5 7 8 7 7 7 7 6 6 7 7 7 7 7 6 6 6 6 6 6 6 6 6 6 6 6 5 4 4
5 3 1 0 0 0 1 2 4 6 8 12 19 20 14 7 4 3 3 5 9 14 13 9 8 8 7 6 6 6 6 7 7 7 6 6 6 6 6 7 7 7 7 7 6 6 6 6 6
3 2 0 0 0 0 1 2 4 7 10 14 21 26 20 10 5 3 2 4 11 16 15 10 7 7 7 7 7 6 6 6 6 6 7 7 7 6 6 7 8 8 7 7 6 6 6 6 6
1 0 0 0 0 1 2 3 4 9 16 23 32 37 31 20 9 4 4 9 16 20 17 11 8 7 7 8 8 8 7 6 7 7 7 7 7 7 8 9 10 10 8 8 7 7 7 6 6
0 0 0 0 1 3 5 5 5 12 27 43 52 51 42 28 15 9 12 22 29 28 21 15 12 10 9 12 14 12 9 9 9 10 11 10 10 12 15 17 17 15 12 11 10 9 8 8 8
0 0 0 0 1 3 4 4 5 15 37 55 61 55 41 28 19 16 23 35 40 34 24 19 19 18 14 16 21 18 16 17 16 19 21 20 19 22 26 29 27 21 17 16 16 15 14 13 14
0 0 0 0 0 1 2 5 11 25 41 49 47 40 31 25 24 26 34 44 43 33 24 25 29 27 23 24 25 25 25 26 27 30 32 32 31 31 34 37 34 26 22 24 27 27 23 21 22
0 0 0 0 0 1 1 8 22 35 40 37 30 25 24 26 33 39 44 46 42 33 30 36 40 38 33 33 34 34 33 33 35 37 37 37 35 33 34 36 34 30 28 29 32 31 26 23 23
0 0 0 0 1 1 3 11 26 35 34 30 25 24 29 38 46 51 51 49 44 40 42 47 51 48 40 36 38 39 37 35 36 37 35 32 29 28 29 31 32 31 30 29 28 25 20 18 18
0 0 0 0 1 2 3 12 24 28 27 27 28 34 45 55 61 62 60 55 50 47 48 49 49 46 38 32 33 34 32 32 34 32 27 22 20 22 24 25 27 26 24 22 21 18 15 13 13
0 0 0 0 1 1 3 11 21 24 24 28 35 46 58 64 67 67 63 58 53 50 47 42 39 37 33 29 27 26 26 27 28 24 19 15 14 17 20 21 21 19 16 14 14 14 13 11 11
0 0 0 0 0 0 2 8 17 21 22 28 38 50 59 61 61 61 57 53 51 49 46 41 36 34 32 28 25 23 22 23 22 18 14 12 11 11 13 15 15 12 9 7 8 10 10 9 10
0 0 0 0 0 0 2 6 12 15 18 24 34 44 51 50 49 50 49 46 46 47 47 44 39 34 28 23 20 19 18 17 16 14 11 8 5 5 6 8 8 6 5 5 6 6 6 6 7
0 0 0 0 0 0 1 4 9 12 14 21 30 37 40 38 39 43 43 41 42 42 41 38 34 26 19 16 15 14 12 10 10 10 9 4 2 1 2 2 3 3 3 4 4 3 3 3 3
0 0 0 0 0 0 0 2 6 8 11 18 29 34 33 31 32 34 35 33 33 32 29 26 23 17 13 13 14 13 9 7 8 10 9 6 3 1 0 0 1 1 1 1 1 1 1 2 1
0 0 0 0 0 0 0 1 4 5 8 14 23 28 28 26 24 24 23 22 22 20 19 19 17 14 13 13 13 12 10 9 10 11 11 9 6 3 1 0 0 0 0 0 0 0 0 0 0
0 0 0 0 0 0 0 1 3 4 7 10 13 18 20 19 18 16 13 12 13 13 14 17 19 18 16 14 12 10 10 11 11 12 13 12 9 4 1 0 0 0 0 0 0 0 0 0 0
0 0 0 0 0 1 0 1 3 4 6 7 7 10 14 15 13 11 8 8 8 9 12 19 27 29 25 20 15 11 11 11 11 12 13 12 9 5 2 1 0 0 0 0 0 0 0 0 0
0 0 0 0 0 0 0 1 1 2 4 4 4 7 11 12 11 9 7 6 7 8 13 25 37 40 35 29 22 17 13 12 11 11 11 10 8 6 4 2 0 0 0 0 0 0 0 0 0
0 0 0 0 0 0 0 0 0 1 1 1 2 4 7 7 8 8 7 8 8 10 15 28 43 47 40 33 27 23 18 14 11 9 7 5 5 6 4 1 0 0 0 0 0 0 0 0 0
0 0 0 0 0 0 0 0 0 0 0 0 1 2 2 2 3 6 9 11 12 13 18 31 45 47 39 30 27 24 19 13 8 5 3 1 2 3 2 1 0 0 0 0 0 0 0 0 0
0 0 0 1 0 0 0 0 0 0 0 0 1 1 1 0 2 5 9 13 14 14 22 36 46 43 34 26 23 20 14 7 3 2 1 0 0 1 1 0 0 0 1 0 0 0 0 0 0
0 0 0 0 0 0 0 0 1 0 0 0 0 0 0 0 2 4 7 10 12 17 28 40 45 39 28 22 18 14 8 3 1 0 0 0 0 1 1 1 0 0 0 0 0 0 0 0 0
0 0 0 0 0 0 0 0 1 1 0 0 0 0 0 0 1 2 5 9 12 19 28 35 36 31 24 18 14 8 4 2 1 1 0 0 0 1 2 2 1 1 0 0 0 0 0 0 0
0 0 0 0 0 0 0 0 0 1 0 0 0 0 0 0 0 2 6 11 14 15 19 23 24 22 17 13 10 5 2 1 1 1 1 1 1 2 2 3 3 2 0 0 0 0 0 0 0
0 0 0 0 0 0 0 0 0 1 0 0 0 0 0 0 0 2 8 13 13 11 13 16 18 16 12 10 8 5 2 2 1 1 2 2 2 3 3 4 4 2 0 0 0 0 0 0 0

GEFSSGP_con_probscp_078.txt.gz
Probability
4 2 0 0 0 0 0 0 0 0 0 2 4 4 2 1 0 0 0 0 1 0 0 0 0 0 0 0 0 0 0 0 0 0 0 0 0 0 0 0 0 0 0 0 0 0 0 0 0
2 1 0 0 0 0 0 0 0 1 3 5 7 7 5 1 0 0 0 1 1 1 1 0 0 0 0 0 0 0 0 0 0 0 0 0 0 0 0 0 0 0 0 0 0 0 0 0 0
0 0 0 0 0 0 0 1 2 4 7 10 12 11 7 2 0 0 1 2 4 3 2 2 2 1 0 0 0 0 0 0 0 0 0 0 0 0 0 0 0 0 0 0 0 0 0 0 0
0 0 0 0 0 1 2 4 6 7 11 14 15 13 8 3 2 3 3 5 7 6 4 4 4 3 1 0 0 0 0 0 0 0 0 0 0 0 0 0 0 0 0 0 0 0 0 0 0
0 0 0 0 0 1 4 8 11 13 15 17 15 13 10 7 8 8 6 8 11 10 7 6 7 6 2 1 0 0 0 0 0 0 0 0 0 0 0 0 0 0 0 0 0 0 0 0 0
0 0 0 0 0 1 4 10 16 21 21 19 17 15 13 12 14 11 8 9 11 11 8 6 6 5 3 1 0 0 0 0 0 0 0 0 0 0 0 0 0 0 0 0 0 0 0 0 0
0 0 0 0 0 0 3 9 17 23 24 19 18 19 18 17 16 13 9 7 7 7 6 5 4 2 2 1 0 0 0 0 0 0 0 0 0 0 0 0 0 0 0 0 0 0 0 0 0
0 0 0 0 0 1 4 11 17 23 24 19 19 21 23 24 22 17 12 8 5 4 4 4 3 1 0 0 0 0 0 0 0 0 0 0 0 0 0 0 0 0 0 0 0 0 0 0 0
0 0 0 0 0 2 7 14 20 23 23 22 23 24 26 29 30 24 17 12 7 3 2 2 2 1 0 0 0 0 0 0 0 0 1 0 0 0 0 1 1 2 2 2 1 1 1 0 0
0 0 0 0 0 2 7 13 16 19 22 24 27 28 27 29 31 25 19 14 7 2 1 1 1 0 0 0 0 0 0 0 0 0 0 0 0 0 0 2 3 5 5 4 3 2 2 1 0
0 0 0 0 1 2 5 7 10 13 17 20 24 26 26 26 24 21 16 11 6 2 1 1 1 0 0 0 0 0 0 0 0 0 0 0 0 0 0 1 3 5 5 4 2 2 2 1 1
0 0 0 0 1 3 4 5 8 12 14 14 16 19 21 21 19 18 17 15 11 8 6 5 4 2 1 1 0 0 1 0 0 0 1 1 1 0 0 0 1 2 2 1 1 0 1 2 2
0 0 0 1 1 3 5 6 8 12 14 13 13 16 17 16 17 21 25 24 21 19 17 13 10 7 5 3 1 0 1 1 0 0 1 2 1 0 0 0 0 1 0 0 0 0 1 1 1
0 0 0 1 1 3 5 6 7 9 12 12 12 14 15 15 18 25 30 29 27 25 24 19 12 10 10 7 3 1 1 1 0 0 2 2 1 0 0 0 0 0 0 0 0 0 0 0 0
0 0 0 0 0 2 4 5 4 5 7 8 9 11 14 16 19 24 28 28 26 26 24 18 11 9 10 8 4 2 2 1 0 0 1 2 1 0 0 0 0 0 0 0 0 0 0 0 0
0 0 0 0 0 1 2 3 3 4 5 6 7 10 13 15 16 19 22 22 20 20 19 14 9 7 6 4 3 2 2 1 0 0 1 1 0 0 0 1 0 0 0 0 0 0 0 0 0
0 0 0 0 0 0 1 2 2 4 6 7 7 9 12 13 14 15 15 13 11 12 12 9 6 4 2 1 1 1 1 0 0 0 0 0 0 0 0 0 0 0 0 0 0 0 0 0 0
0 0 0 0 0 0 0 1 2 4 5 6 6 6 8 10 11 11 10 7 5 5 6 5 4 2 0 0 0 0 0 0 0 0 0 0 0 0 0 0 0 0 0 0 0 0 0 0 0
0 0 0 0 0 0 0 1 2 4 4 4 3 4 4 5 8 9 9 8 6 4 3 3 2 1 0 0 0 0 0 0 0 0 0 0 0 0 0 0 0 0 0 0 0 0 0 0 0
0 0 0 0 0 0 0 0 1 2 3 3 2 3 3 4 5 8 9 9 7 6 3 1 1 0 0 0 0 0 0 0 0 0 0 0 0 0 0 0 0 0 0 0 0 0 0 0 0
0 0 0 0 0 0 0 0 0 1 2 2 2 2 3 4 5 7 7 6 6 5 3 1 0 0 0 0 0 0 0 0 0 0 0 0 0 0 0 0 0 0 0 0 0 0 0 0 0
0 0 0 0 0 0 0 0 0 0 1 1 1 0 1 2 4 5 5 4 4 4 2 1 0 0 0 0 0 0 0 0 0 0 0 0 0 0 0 0 0 0 0 0 0 0 0 0 0
0 0 0 0 0 0 0 0 0 0 0 0 0 0 0 2 3 4 3 3 3 3 1 0 0 0 0 0 0 0 0 0 0 0 0 0 0 0 0 0 0 0 0 0 0 0 0 0 0
0 0 0 0 0 0 0 0 0 0 0 0 0 0 1 2 3 3 3 4 4 3 1 0 0 0 0 0 0 0 0 0 0 0 0 0 0 0 0 0 0 0 0 0 0 0 0 0 0
0 0 0 0 0 0 0 0 0 0 0 0 0 1 2 3 3 3 3 4 4 3 1 0 0 0 0 1 1 0 0 0 0 0 0 0 0 0 0 0 0 0 0 0 0 0 0 0 0
0 0 0 0 0 0 0 0 0 0 0 0 0 1 1 2 2 2 1 2 3 3 1 1 0 0 2 3 2 1 1 0 0 0 0 0 0 0 0 0 0 0 0 0 0 0 0 0 0
0 0 0 0 0 0 0 0 0 0 0 0 0 0 1 1 1 1 0 1 2 3 2 2 1 2 4 5 4 3 1 0 0 0 0 0 0 0 0 0 0 0 0 0 0 0 0 0 0
0 0 0 0 0 0 0 0 0 0 0 0 0 1 2 2 1 0 0 0 1 2 2 2 2 4 6 7 6 4 1 0 0 0 0 0 0 0 0 0 0 0 0 0 0 0 0 0 0
0 0 0 0 0 0 0 0 0 0 0 0 0 1 2 2 1 0 0 0 0 1 2 2 4 6 8 8 6 4 2 0 0 0 0 0 0 0 0 0 0 0 0 0 0 0 0 0 0
0 0 0 0 0 0 0 0 0 0 0 0 0 0 1 2 2 1 0 0 0 1 2 3 5 7 8 8 6 4 2 1 0 0 0 0 0 0 0 0 0 0 0 0 0 0 0 0 0

GEFSSGP_con_probscp_084.txt.gz
Probability
0 0 0 0 0 0 0 0 0 0 0 0 0 0 0 0 0 0 0 1 2 1 0 0 0 1 1 2 3 2 1 0 0 0 0 0 0 0 0 0 0 0 0 0 0 0 0 0 0
0 0 0 0 0 0 0 0 0 0 0 0 0 0 0 0 0 0 0 1 2 2 0 0 1 1 1 1 2 2 1 0 0 0 0 0 0 0 0 0 0 0 0 0 0 0 0 0 0
0 0 0 0 0 0 0 0 1 1 1 0 0 0 0 0 0 1 1 3 3 2 0 0 1 2 2 1 1 1 0 0 0 0 0 0 0 0 0 0 0 0 0 0 0 0 0 0 0
0 0 0 0 0 0 0 0 1 2 2 1 2 2 1 1 1 2 3 6 7 6 3 1 1 2 3 2 1 0 0 0 0 0 0 0 0 0 0 0 0 0 0 0 0 0 0 0 0
0 0 0 0 0 0 0 1 2 5 6 6 6 6 6 5 6 6 7 11 15 15 9 4 3 5 5 3 1 0 0 0 0 0 0 0 0 0 0 0 0 0 0 0 0 0 0 0 0
0 0 0 0 0 0 0 2 5 9 10 10 11 13 13 12 13 13 12 16 23 24 17 9 6 7 6 3 1 0 0 0 0 0 0 0 0 0 0 0 0 0 0 0 0 0 0 0 0
0 0 0 0 0 0 0 2 6 9 10 11 13 19 21 18 18 19 20 23 27 27 19 11 7 6 5 2 1 0 0 0 0 0 0 0 0 0 0 1 1 0 0 0 0 0 0 0 0
0 0 0 0 0 0 1 3 6 9 11 11 13 19 25 26 24 26 29 29 27 22 17 11 7 4 3 1 0 0 0 0 0 0 0 0 0 0 1 2 2 1 0 0 0 0 0 0 1
0 0 0 0 0 1 3 6 8 11 13 14 15 21 30 34 32 31 31 29 23 18 14 10 6 3 1 0 0 0 0 0 0 0 0 0 0 0 1 3 3 1 0 0 0 0 0 0 1
0 0 0 0 0 1 4 7 10 11 12 15 20 28 37 39 33 27 23 20 16 14 13 10 4 1 0 0 0 0 0 0 0 0 0 0 0 0 1 2 2 1 0 0 0 0 0 0 1
0 0 0 0 0 1 3 6 7 8 8 13 23 34 40 36 26 18 14 12 10 10 12 9 4 1 1 1 0 0 0 0 0 0 0 0 0 0 1 2 1 0 0 0 0 0 0 0 0
0 0 0 0 0 1 2 3 4 5 5 10 21 31 34 28 19 12 10 9 8 9 10 8 4 1 2 1 1 0 0 0 0 0 0 0 0 0 1 1 1 0 0 0 0 0 0 0 0
0 0 0 0 0 0 1 2 3 3 4 9 16 21 24 21 15 9 8 9 9 10 9 6 3 1 1 1 1 1 1 1 1 0 0 0 0 0 0 0 0 0 0 0 0 0 0 0 0
0 0 0 0 0 0 1 2 3 3 6 10 13 14 16 16 13 9 8 10 11 11 8 4 2 1 0 0 0 1 1 2 1 0 0 0 0 0 0 0 0 0 0 0 0 0 0 0 0
0 0 0 0 0 0 1 1 3 5 7 9 10 11 12 11 10 8 7 9 10 9 6 3 1 1 0 0 0 0 1 1 1 0 0 0 0 0 0 0 0 0 0 0 0 0 0 0 0
0 0 0 0 0 0 0 1 2 5 6 6 6 8 10 9 8 7 7 7 7 7 5 3 2 1 0 0 0 0 0 0 0 0 0 0 0 0 0 0 0 0 0 0 0 0 0 0 0
0 0 0 0 0 0 0 0 1 3 5 4 3 6 7 8 7 6 6 6 5 4 4 4 3 1 0 0 0 0 0 1 0 0 0 0 0 0 0 0 0 0 0 0 0 0 0 0 0
0 0 0 0 0 0 0 0 0 1 2 2 2 3 4 4 5 5 6 6 4 3 4 4 3 1 0 0 0 0 0 0 0 0 0 0 0 0 0 0 0 0 0 0 0 0 0 0 0
0 0 0 0 0 0 0 0 0 0 0 0 0 0 1 2 3 4 5 5 5 3 3 4 3 2 1 0 0 0 0 0 0 0 0 0 0 0 0 0 0 0 0 0 0 0 0 0 0
0 0 0 0 0 0 0 0 0 0 0 0 0 0 0 1 2 3 4 5 5 4 4 4 4 3 2 0 0 0 0 0 0 0 0 0 0 0 0 0 0 0 0 0 0 0 0 0 0
0 0 0 0 0 0 0 0 0 0 0 0 0 0 1 2 2 3 4 5 4 4 3 4 3 3 1 0 0 0 0 0 0 0 0 0 0 0 0 0 0 0 0 0 0 0 0 0 0
0 0 0 0 0 0 0 0 0 0 0 0 0 0 1 2 3 3 4 5 5 4 3 3 3 2 1 0 0 0 0 0 0 0 0 0 0 0 0 0 0 0 0 0 0 0 0 0 0
0 0 0 0 0 0 0 0 0 0 0 0 0 0 1 2 2 3 3 4 5 4 3 3 3 2 1 0 0 0 0 0 0 0 0 0 0 0 0 0 0 0 0 0 0 0 0 0 0
0 0 0 0 0 0 0 0 0 0 0 0 0 0 0 1 1 1 2 3 4 3 3 3 3 2 0 0 0 0 0 0 0 0 0 0 0 0 0 0 0 0 0 0 0 0 0 0 0
0 0 0 0 0 0 0 0 0 0 0 0 0 0 0 0 0 1 2 3 3 4 3 3 3 2 0 0 0 0 0 0 0 0 0 0 0 0 0 0 0 0 0 0 0 0 0 0 0
0 0 0 0 0 0 0 0 0 0 0 0 0 0 0 0 0 1 2 3 4 4 4 3 2 1 0 0 0 0 0 0 0 0 0 0 0 0 0 0 0 0 0 0 0 0 0 0 0
0 0 0 0 0 0 0 0 0 0 0 0 0 0 0 0 0 1 2 2 3 4 4 3 2 1 0 0 0 0 0 0 0 0 0 0 0 0 0 0 0 0 0 0 0 0 0 0 0
0 0 0 0 0 0 0 0 0 0 0 0 0 0 0 0 0 0 1 1 1 3 3 3 2 1 0 0 0 0 1 1 1 1 0 0 0 0 0 0 0 0 0 0 0 0 0 0 0
0 0 0 0 0 0 0 0 0 0 0 0 0 0 0 0 0 0 0 0 0 1 2 2 1 1 0 0 0 1 2 2 2 2 1 0 0 0 0 0 0 0 0 0 0 0 0 0 0
0 0 0 0 0 0 0 0 0 0 0 0 0 0 0 0 0 0 0 0 0 0 1 2 1 0 0 0 1 2 3 3 3 3 2 1 0 0 0 0 0 0 0 0 0 0 0 0 0

GEFSSGP_con_probscp_090.txt.gz
Probability
3 3 3 3 2 1 0 0 0 0 0 0 0 1 1 0 0 1 1 2 5 6 6 5 5 6 6 6 6 7 7 6 4 1 0 0 0 0 0 0 0 0 0 0 0 0 0 0 0
2 2 2 2 1 0 0 0 0 0 0 0 0 1 2 1 1 2 3 4 6 6 5 4 5 5 5 6 6 6 5 4 3 1 0 0 0 0 0 0 0 0 0 0 0 0 0 0 0
2 1 1 1 0 0 0 0 0 0 0 0 0 1 2 2 2 3 5 7 8 6 5 4 4 4 4 4 4 4 3 2 1 0 0 0 0 0 0 0 0 0 0 0 0 0 0 0 0
1 0 0 0 0 0 0 0 0 0 0 0 0 0 2 3 4 5 7 8 8 6 5 4 4 3 3 3 3 1 1 1 0 0 0 0 0 0 0 1 1 1 1 1 0 0 0 0 0
0 0 0 0 0 0 0 0 1 1 1 1 1 2 4 7 8 8 7 8 8 6 6 5 4 3 3 3 3 1 1 1 0 0 0 0 0 0 1 2 2 2 2 2 1 1 1 0 1
0 0 0 0 0 0 0 1 2 2 3 3 3 5 10 14 14 11 8 6 7 7 7 6 5 3 3 3 3 3 2 2 1 1 0 0 0 1 2 3 3 3 3 3 3 3 2 2 2
0 0 0 0 0 0 0 1 3 4 5 5 5 7 15 24 23 15 9 6 7 8 8 7 5 4 4 3 3 3 3 3 3 2 1 0 0 1 3 3 3 2 1 2 4 4 3 2 2
0 0 0 0 0 0 0 1 3 5 7 8 7 10 22 37 38 25 15 10 9 10 9 7 6 5 5 4 3 3 3 3 3 3 1 0 1 2 3 3 3 3 1 1 1 1 1 1 1
0 0 0 0 0 0 0 0 2 4 7 9 11 16 32 52 56 43 28 19 16 14 11 8 7 7 6 4 3 3 3 3 3 3 2 2 2 2 2 2 2 3 2 1 0 0 0 0 0
0 0 0 0 0 0 0 0 0 3 6 9 14 24 40 57 63 54 37 27 23 19 14 11 10 10 8 6 4 4 4 3 3 3 3 3 2 1 0 0 1 1 1 1 1 1 1 1 1
0 0 0 0 0 0 0 0 1 2 5 9 16 26 39 51 56 51 39 31 26 21 16 15 15 13 10 8 7 6 4 3 3 3 3 3 2 1 0 0 0 0 0 0 1 1 2 2 2
0 0 0 0 0 0 0 0 1 2 5 10 15 24 33 41 46 44 38 33 27 20 17 19 20 17 13 11 10 8 6 4 3 3 3 1 1 0 0 0 0 0 0 0 0 1 1 1 1
0 0 0 0 0 0 0 0 1 2 5 10 15 21 27 32 37 40 39 36 28 20 17 19 22 21 18 15 12 9 6 5 4 3 2 1 0 0 0 0 0 0 0 0 0 0 0 0 0
0 0 0 0 0 0 0 0 0 2 5 9 16 23 27 28 30 34 37 35 28 22 19 19 20 21 20 17 14 8 5 4 4 3 2 0 0 0 0 0 0 0 0 0 0 0 0 0 0
0 0 0 0 0 0 0 0 0 1 4 8 16 26 29 28 27 29 32 31 26 25 25 21 18 17 17 15 11 5 2 2 3 3 3 2 0 0 0 0 0 0 0 0 0 0 0 0 0
0 0 0 0 0 0 0 0 1 2 4 7 13 21 25 24 23 25 26 24 21 23 26 23 17 16 15 12 7 3 1 1 2 3 4 3 1 0 0 0 0 0 0 0 0 0 0 0 0
0 0 0 0 0 0 0 1 2 2 3 5 8 13 16 18 19 20 20 17 15 17 21 21 19 16 13 10 7 4 2 1 2 3 3 2 1 0 0 0 0 0 0 0 0 0 0 0 0
0 0 0 0 0 0 0 0 1 1 1 3 6 8 9 11 14 16 15 13 12 12 15 18 18 15 12 10 6 4 2 0 1 2 1 1 0 0 0 0 0 0 0 0 0 0 0 0 0
0 0 0 0 0 0 0 0 0 0 0 2 6 6 4 5 9 12 12 12 12 12 12 14 15 13 11 9 7 4 2 0 0 0 0 0 0 0 0 0 0 0 0 0 0 0 0 0 0
0 0 0 0 0 0 0 0 0 0 0 1 4 4 2 1 4 8 10 11 12 13 11 11 12 11 10 9 7 5 2 1 0 0 0 0 0 0 0 0 0 0 0 0 0 0 0 0 0
0 0 0 0 0 0 0 0 0 0 0 0 2 2 1 1 2 5 7 9 10 11 10 10 11 12 11 10 7 5 3 1 0 0 0 0 0 0 0 0 0 0 0 0 0 0 0 0 0
0 0 0 0 0 0 0 0 0 0 0 0 1 1 1 0 1 2 4 5 6 8 10 11 12 13 12 9 7 4 3 2 1 0 0 0 0 0 0 0 1 1 0 0 0 0 0 0 0
0 0 0 0 0 0 0 0 0 0 0 0 0 0 0 0 0 0 2 3 4 6 9 11 12 12 10 9 6 4 3 3 2 1 0 0 0 0 1 1 2 2 1 1 1 1 0 0 0
0 0 0 0 0 0 0 0 0 0 0 0 0 0 0 0 0 0 1 3 3 5 7 10 11 10 10 9 7 5 4 4 4 2 1 1 0 1 2 3 3 3 3 2 2 2 1 0 0
0 0 0 0 0 0 0 0 0 0 0 0 0 0 0 0 0 1 3 5 5 6 9 12 12 11 10 9 8 6 6 6 5 3 3 2 2 2 3 3 3 3 3 3 3 2 1 0 0
0 0 0 0 0 0 0 0 0 0 0 0 0 0 0 0 0 2 4 6 6 8 12 14 14 12 10 9 8 7 6 6 4 3 3 3 3 3 3 3 3 3 3 3 3 2 1 1 0
0 0 0 0 0 0 0 0 0 0 0 0 0 0 0 0 0 2 4 6 6 7 11 14 13 12 10 9 8 8 7 6 4 3 3 3 3 3 3 3 3 3 3 3 3 2 2 2 1
0 0 0 0 0 0 0 0 0 0 0 0 0 0 0 0 0 1 4 6 6 6 9 11 11 10 9 9 8 9 9 8 5 3 3 3 3 4 4 4 3 3 3 3 2 1 2 2 1
0 0 0 0 0 0 0 0 0 0 0 0 0 0 0 0 0 1 3 5 5 4 6 8 10 9 9 10 10 11 13 12 8 4 3 3 4 5 5 5 4 3 3 3 3 1 1 1 2
0 0 0 0 0 0 0 0 0 0 0 0 0 0 0 0 0 1 2 4 4 4 4 7 9 9 9 11 13 15 17 15 10 6 4 3 4 5 6 6 4 3 3 3 3 2 1 1 2

GEFSSGP_con_probscp_096.txt.gz
Probability
2 2 2 1 0 1 1 1 0 0 0 0 0 1 7 12 13 11 10 21 35 31 18 14 11 5 1 0 0 0 0 0 0 0 0 0 0 0 0 0 0 0 0 0 0 0 0 0 0
1 2 2 1 0 0 0 0 0 0 0 0 0 3 8 12 11 9 12 26 36 29 17 14 11 5 1 0 0 0 0 0 0 0 0 0 0 0 0 0 0 0 0 0 0 0 0 0 0
0 1 1 1 0 0 0 0 0 0 0 0 2 7 12 13 10 10 19 33 37 28 19 15 11 6 1 0 0 0 0 0 0 0 0 0 0 0 0 0 0 0 0 0 0 0 0 0 0
0 0 0 0 0 0 0 0 0 0 0 1 6 13 18 16 12 15 25 35 36 27 19 15 12 7 2 0 0 0 0 0 0 0 0 0 0 0 0 0 0 0 0 0 0 0 0 0 0
0 0 0 0 0 0 0 0 0 0 1 3 10 19 22 17 14 15 21 29 31 26 20 16 13 9 3 1 1 1 0 0 0 0 0 0 0 0 0 0 0 0 0 0 0 0 0 0 0
0 0 0 0 0 0 0 0 0 1 2 3 11 21 23 17 13 12 15 21 26 28 24 19 15 11 5 3 2 1 0 0 0 0 0 0 0 0 0 0 0 0 0 0 0 0 0 0 0
0 0 0 0 0 0 0 0 0 2 4 5 10 20 25 22 16 15 17 21 26 30 26 19 14 10 6 2 1 0 0 0 0 0 0 0 0 0 0 0 0 0 0 0 0 0 0 0 0
0 0 0 0 0 0 0 0 0 2 6 8 14 25 34 34 28 25 26 28 31 31 24 15 11 8 5 1 0 0 0 0 0 0 0 0 0 0 0 0 0 0 0 0 0 0 0 0 0
0 0 0 0 0 0 0 0 0 2 7 15 27 42 49 47 43 40 39 39 41 37 26 17 14 9 4 1 1 0 0 0 0 0 0 0 0 0 0 0 0 0 0 0 0 0 0 0 0
0 0 0 0 0 0 0 0 0 2 9 25 46 61 61 56 54 51 51 54 56 48 36 29 24 16 8 5 4 1 0 0 0 0 0 0 0 0 0 0 0 0 0 0 0 0 0 0 0
0 0 0 0 0 0 0 0 0 3 13 34 58 71 69 64 60 58 59 66 68 60 49 44 38 27 20 14 8 4 3 3 3 2 0 0 0 1 1 1 1 0 0 0 0 0 0 0 0
0 0 0 0 0 0 0 0 1 7 19 37 57 68 73 70 63 59 62 70 73 66 59 56 51 43 37 28 16 10 10 7 5 4 2 1 2 2 2 2 1 0 0 0 0 0 0 0 0
0 0 0 0 0 0 0 1 3 9 20 35 48 60 68 68 63 59 63 71 72 67 62 62 60 56 52 43 30 21 17 12 8 6 4 4 4 3 3 2 2 1 1 1 1 1 1 0 0
0 0 0 0 0 0 0 1 5 11 20 31 43 54 61 62 60 60 64 68 66 61 61 63 62 60 54 46 37 28 20 15 13 11 9 9 7 5 4 3 1 1 2 3 2 1 0 0 0
0 0 0 0 0 0 0 3 10 18 24 31 41 52 58 58 58 59 61 61 56 53 56 57 55 52 46 38 33 28 20 17 17 17 14 11 8 6 5 4 2 1 1 1 1 0 0 0 0
0 0 0 0 0 0 1 7 17 23 25 30 40 49 55 55 55 55 53 51 50 49 52 51 48 44 39 34 31 27 21 18 17 17 14 9 5 4 4 3 2 0 0 0 0 0 0 0 0
0 0 0 0 0 0 2 11 20 22 21 27 39 48 52 51 49 47 45 45 48 50 51 47 44 41 37 33 31 26 22 18 15 13 9 4 2 1 1 1 1 0 0 0 0 0 0 0 0
0 0 0 0 0 0 2 10 18 19 18 25 38 47 51 47 41 39 40 41 44 49 48 43 40 38 36 33 28 23 19 16 12 8 4 1 0 0 0 0 0 0 0 0 0 0 0 0 0
0 0 0 0 0 0 2 8 16 19 18 24 37 47 49 44 37 33 34 34 37 42 42 39 37 37 36 31 26 21 17 13 8 3 1 0 0 0 0 0 0 0 0 0 0 0 0 0 0
0 0 0 0 0 0 2 7 14 17 17 22 35 43 42 37 31 27 26 27 30 33 35 33 33 35 33 27 24 20 16 10 5 1 0 0 0 0 0 0 0 0 0 0 0 0 0 0 0
0 0 0 0 0 0 1 6 11 14 12 16 27 33 30 25 23 20 18 20 23 23 25 25 25 28 27 24 21 17 13 7 2 0 0 0 0 0 0 0 0 0 0 0 0 0 0 0 0
0 0 0 0 0 0 1 4 9 11 10 11 17 21 18 17 17 16 14 14 15 15 17 19 20 22 23 20 18 14 8 4 2 0 0 0 0 0 0 0 0 0 0 0 0 0 0 0 0
0 0 0 0 0 0 0 2 5 8 9 10 13 14 12 13 14 14 12 10 9 10 14 18 20 21 20 18 16 12 6 3 2 1 1 1 0 0 0 0 1 1 0 0 0 0 1 1 0
0 0 0 0 0 0 0 1 2 4 6 9 9 9 9 10 11 11 10 8 7 8 13 18 21 21 19 16 15 10 7 5 4 4 4 2 1 0 1 2 3 2 1 0 0 1 2 2 1
0 0 0 0 1 0 0 0 1 2 3 5 5 4 5 7 8 9 10 9 9 11 16 22 24 23 20 15 13 11 9 8 7 6 6 3 1 1 3 4 5 4 2 1 1 2 3 3 2
0 0 0 0 0 0 0 0 1 1 1 2 4 2 1 3 6 9 10 11 13 15 22 28 28 26 22 17 16 15 12 8 6 6 5 2 0 2 5 6 5 4 3 2 2 3 3 3 3
0 0 0 0 0 0 0 0 1 1 1 2 3 3 1 1 4 7 10 12 16 20 27 32 32 30 26 21 20 18 12 7 5 5 3 1 1 3 5 6 5 4 4 3 3 3 3 3 3
0 0 0 0 0 0 0 1 2 3 2 2 3 3 2 1 2 6 10 13 17 23 29 33 34 33 29 24 20 15 11 8 8 9 7 6 6 7 8 7 6 5 5 4 4 3 3 3 3
0 0 0 0 0 0 0 1 2 2 1 1 1 3 3 1 1 6 11 15 18 23 29 34 36 35 30 25 21 18 17 16 17 18 19 16 14 13 13 11 8 7 6 7 6 5 3 3 3
0 0 0 1 1 1 1 2 2 1 0 0 1 2 3 2 2 5 12 17 20 24 29 33 36 35 32 28 27 27 27 27 25 26 27 25 20 17 16 13 9 7 8 10 9 6 4 3 3

GEFSSGP_con_probscp_102.txt.gz
Probability
3 1 0 0 0 0 0 0 0 1 3 7 12 17 16 10 5 1 3 7 11 12 12 11 9 5 2 0 0 0 0 0 0 0 0 0 0 0 0 0 0 0 0 0 0 0 0 0 0
1 0 0 0 0 0 0 0 0 1 3 7 14 17 15 9 3 1 4 9 14 15 13 12 12 8 3 1 0 0 0 0 0 0 0 0 0 0 0 0 0 0 0 0 0 0 0 0 0
0 0 0 0 0 0 0 0 0 1 5 12 18 18 13 6 2 3 9 14 18 19 17 16 16 13 5 1 0 0 0 0 0 0 0 0 0 0 0 0 0 0 0 0 0 0 0 0 0
0 0 0 0 0 0 0 0 1 3 11 22 29 25 14 7 8 13 18 22 25 26 25 23 22 16 8 2 0 0 0 0 0 0 0 0 0 0 0 0 0 0 0 0 0 0 0 0 0
0 0 0 0 0 0 0 0 2 7 19 34 41 33 19 16 23 28 27 28 31 33 31 31 28 21 11 5 1 0 0 0 0 0 0 0 0 0 0 0 0 0 0 0 0 0 0 0 0
0 0 0 0 0 0 0 0 3 12 26 40 47 38 26 28 36 38 34 32 35 38 37 34 29 22 15 9 4 1 0 0 0 0 0 0 0 0 0 0 0 0 0 0 0 0 0 0 0
0 0 0 0 0 0 0 0 4 15 29 42 49 44 35 37 43 43 39 36 39 43 42 35 26 20 16 11 6 1 0 0 0 0 0 0 0 0 0 0 0 0 0 0 0 0 0 0 0
0 0 0 0 0 0 0 1 6 18 32 43 49 47 44 47 53 53 48 44 44 45 42 35 26 21 17 12 6 2 0 0 0 0 0 0 0 0 0 0 0 0 0 0 0 0 0 0 1
0 0 0 0 0 0 0 3 10 24 39 48 52 52 55 62 68 67 61 54 50 45 39 32 27 24 20 14 7 3 1 0 0 0 0 0 0 0 0 0 0 0 0 0 0 0 0 0 1
0 0 0 0 0 0 0 3 12 26 41 54 61 65 70 76 78 75 68 61 52 44 36 29 26 24 21 15 9 4 2 0 0 0 0 0 0 0 0 0 0 0 0 0 0 0 0 0 1
0 0 0 0 0 0 0 2 9 20 35 52 68 75 78 80 80 76 70 61 51 41 33 25 22 20 17 14 10 6 2 0 0 0 0 0 0 0 0 0 0 0 0 0 0 0 0 0 0
0 0 0 0 0 0 0 2 8 17 32 51 68 76 76 74 75 75 69 60 49 39 31 24 19 14 13 13 11 6 3 1 0 0 0 0 0 0 0 0 0 0 0 0 0 0 0 0 0
0 0 0 0 0 0 0 4 13 25 41 59 71 74 70 67 69 71 66 57 48 38 30 23 17 11 11 13 11 6 2 1 0 0 0 0 0 0 0 0 0 0 0 0 0 0 0 0 0
0 0 0 0 0 0 0 5 20 37 54 66 73 72 67 62 61 62 61 55 47 38 29 22 16 12 12 12 9 5 2 0 0 0 0 0 0 0 0 0 0 0 0 0 0 0 0 0 0
0 0 0 0 0 0 0 5 22 43 58 67 70 70 65 58 53 53 55 52 44 36 30 22 15 12 12 11 8 6 3 1 0 0 0 0 0 0 0 0 0 0 0 0 0 0 0 0 0
0 0 0 0 0 0 1 5 20 41 56 62 66 66 63 56 49 47 47 43 36 31 28 23 16 12 11 10 9 7 5 2 2 2 1 0 0 0 0 0 0 0 0 0 0 0 0 0 0
0 0 0 0 0 0 1 4 15 34 50 58 61 61 57 51 43 38 35 31 25 22 22 21 17 13 11 11 9 8 6 5 4 3 2 1 0 0 0 0 0 0 0 0 0 0 0 0 0
0 0 0 0 0 1 2 5 12 25 41 51 54 53 50 42 33 26 23 21 19 18 18 19 18 14 12 10 8 7 7 6 4 3 2 1 0 0 0 0 0 0 0 0 0 0 0 0 0
0 0 0 0 0 1 4 7 11 18 29 38 41 42 41 36 28 20 17 17 17 17 18 17 16 12 10 7 6 6 6 4 2 1 1 0 0 0 0 0 0 0 0 0 0 0 0 0 0
0 0 0 0 0 1 4 7 9 12 18 24 27 30 33 31 26 20 16 15 15 16 15 14 12 9 7 6 5 5 3 1 1 0 0 0 0 0 0 0 0 0 0 0 0 0 0 0 0
0 0 0 0 0 1 3 4 6 8 12 15 18 22 26 25 22 19 15 13 12 12 12 10 8 6 5 5 5 3 1 0 0 0 0 0 0 0 0 0 0 0 0 0 0 0 0 0 0
0 0 0 0 0 0 1 1 3 5 7 9 13 17 20 19 17 15 12 10 9 10 11 10 8 5 4 5 5 2 0 0 0 0 0 0 0 0 0 0 0 0 0 0 0 0 0 0 0
0 0 0 0 0 0 0 0 1 2 2 3 7 12 14 14 12 10 8 8 9 10 12 12 10 6 5 5 5 2 0 0 0 0 0 0 0 0 0 0 0 0 0 0 0 0 0 0 0
0 0 0 0 0 0 0 0 0 0 0 0 3 8 11 10 8 7 6 7 9 11 12 12 10 8 6 6 6 3 1 1 0 0 0 0 0 0 0 0 0 0 0 0 0 0 0 0 0
0 0 0 0 0 0 0 0 0 0 0 0 1 5 9 9 7 6 6 7 9 10 10 9 8 7 7 6 6 5 3 2 1 0 0 0 0 0 0 0 0 0 0 0 0 0 0 0 0
0 0 0 0 0 0 0 0 0 0 0 0 0 3 6 7 6 5 5 6 7 8 8 8 7 7 7 7 7 6 4 3 2 1 1 1 0 0 0 0 0 0 0 0 0 0 0 0 0
0 0 0 0 0 0 0 0 0 0 0 0 0 1 2 4 5 4 5 6 7 8 9 10 10 8 8 8 7 5 4 3 3 3 2 1 0 0 0 0 0 0 0 0 0 0 0 0 0
0 0 0 0 0 0 0 0 0 0 0 0 0 0 0 1 2 3 4 6 8 10 11 12 12 10 8 7 6 4 3 3 3 3 2 1 0 0 0 0 0 0 0 0 0 0 0 0 0
0 0 0 0 0 0 0 0 0 0 0 0 0 0 0 0 1 2 3 5 8 10 11 12 12 9 6 4 3 3 2 3 3 3 1 0 0 0 0 0 0 0 0 0 0 0 0 0 0
0 0 0 0 0 0 0 0 0 0 0 0 0 0 0 0 1 2 3 5 7 8 9 12 11 8 5 2 1 1 1 2 3 2 1 0 0 0 0 0 0 0 0 0 0 0 0 0 0

GEFSSGP_con_probscp_108.txt.gz
Probability
0 0 0 0 0 0 0 0 0 0 0 0 0 1 0 0 0 0 1 1 5 7 4 1 2 3 4 3 2 1 0 0 0 0 0 0 0 0 0 0 0 0 0 0 0 0 0 0 0
0 0 0 0 0 0 0 0 0 0 0 0 0 1 1 1 1 1 1 3 8 9 5 1 2 4 4 4 3 1 0 0 0 0 0 0 0 0 0 0 0 0 0 0 0 0 0 0 0
0 0 0 0 0 0 0 0 0 0 0 0 1 1 1 1 2 1 3 8 12 12 6 2 3 4 5 5 3 1 0 0 0 0 0 0 0 0 0 0 0 0 0 0 0 0 0 0 0
0 0 0 0 0 0 0 0 1 1 1 2 3 2 1 1 2 3 7 13 17 15 10 7 6 7 7 6 3 1 0 0 0 0 0 0 0 0 0 0 0 0 0 0 0 0 0 0 0
0 0 0 0 0 0 0 1 2 3 5 10 10 6 3 3 6 10 14 18 21 22 19 15 14 12 9 6 4 2 1 0 0 0 0 0 0 0 0 0 0 0 0 0 0 0 0 0 0
0 0 0 0 0 0 0 1 4 7 14 21 19 12 7 9 14 19 23 23 25 28 29 27 23 17 12 8 5 3 1 0 0 0 0 0 0 0 0 0 0 0 0 0 0 0 0 0 0
0 0 0 0 0 0 0 1 5 11 22 30 28 19 13 15 22 29 32 31 30 34 37 35 30 23 16 10 6 3 1 0 0 0 0 0 0 0 0 0 0 0 0 0 0 0 0 0 0
0 0 0 0 0 0 0 1 6 15 27 36 35 25 20 25 35 43 47 44 40 39 40 38 34 29 22 13 7 4 1 0 0 0 0 0 0 0 0 0 0 0 0 0 0 0 0 0 0
0 0 0 0 0 0 0 0 6 19 32 39 38 32 34 46 55 60 63 57 48 43 40 39 37 34 28 19 11 6 3 1 0 0 0 0 0 0 0 0 0 0 0 0 0 0 0 0 0
0 0 0 0 0 0 0 1 8 23 34 40 43 47 56 66 70 69 68 63 54 46 40 37 38 38 34 25 17 11 6 3 1 0 0 0 0 0 0 0 0 0 0 0 0 0 0 0 0
0 0 0 0 0 0 0 2 10 23 30 35 48 62 72 75 71 67 64 61 56 48 38 34 36 38 35 30 23 15 9 5 2 0 0 0 0 0 0 0 0 0 0 0 0 0 0 0 0
0 0 0 0 0 0 1 4 11 19 21 28 48 69 78 75 67 61 57 55 53 47 38 33 33 33 31 31 27 18 12 7 2 0 0 0 0 0 0 0 0 0 0 0 0 0 0 0 0
0 0 0 0 0 0 2 6 11 14 17 29 52 72 79 74 64 56 51 47 46 43 39 34 30 27 27 29 25 17 12 7 2 0 0 0 0 0 0 0 0 0 0 0 0 0 0 0 0
0 0 0 0 0 0 2 7 10 13 20 37 57 70 74 71 64 54 45 39 35 33 33 31 27 24 24 24 21 14 9 5 2 0 0 0 0 0 0 0 0 0 0 0 0 0 0 0 0
0 0 0 0 0 0 1 5 8 15 28 43 54 61 65 64 58 49 39 32 24 21 22 22 21 20 20 20 17 11 7 4 2 1 0 0 0 0 0 0 0 0 0 0 0 0 0 0 0
0 0 0 0 0 0 0 2 6 18 34 45 50 52 53 50 45 39 32 26 18 14 15 15 15 17 17 16 14 9 5 3 2 1 0 0 0 0 0 0 0 0 0 0 0 0 0 0 0
0 0 0 0 0 0 0 1 5 20 36 44 45 46 43 38 33 30 28 22 15 10 10 11 12 13 13 13 11 8 4 2 1 0 0 0 0 0 0 0 0 0 0 0 0 0 0 0 0
0 0 0 0 0 0 0 1 7 19 33 38 38 37 34 29 25 24 24 21 15 10 9 9 10 10 11 11 9 7 5 3 1 0 0 0 0 0 0 0 0 0 0 0 0 0 0 0 0
0 0 0 0 0 0 0 1 7 17 24 28 30 29 26 23 21 21 20 18 14 12 11 10 8 8 8 9 8 7 6 4 2 0 0 0 0 0 0 0 0 0 0 0 0 0 0 0 0
0 0 0 0 0 0 0 1 5 11 14 19 24 25 23 21 21 20 17 15 13 12 12 11 9 8 7 8 7 6 5 3 2 0 0 0 0 0 0 0 0 0 0 0 0 0 0 0 0
0 0 0 0 0 0 0 1 3 4 6 11 17 20 21 20 21 19 15 12 10 10 10 9 8 8 7 7 7 6 4 2 1 0 0 0 0 0 0 0 0 0 0 0 0 0 0 0 0
0 0 0 0 0 0 0 0 1 1 2 5 9 11 14 17 19 17 13 9 7 7 7 6 5 5 6 6 6 6 4 2 1 0 0 0 0 0 0 0 0 0 0 0 0 0 0 0 0
0 0 0 0 0 0 0 0 0 0 0 1 2 4 6 9 12 13 11 7 4 4 4 3 3 3 4 4 4 5 4 3 2 1 0 0 0 0 0 0 0 0 0 0 0 0 0 0 0
0 0 0 0 0 0 0 0 0 0 0 0 0 1 1 3 6 8 8 6 4 4 3 3 4 3 3 3 3 4 3 3 3 2 1 0 0 0 0 0 0 0 0 0 0 0 0 0 0
0 0 0 0 0 0 0 0 0 0 0 0 0 0 0 1 3 5 6 7 7 6 4 4 4 4 3 3 3 3 3 3 3 3 2 1 0 0 0 0 0 0 0 0 0 0 0 0 0
0 0 0 0 0 0 0 0 0 0 0 0 0 0 0 0 1 3 5 7 7 6 5 4 5 4 3 3 3 3 3 3 3 3 3 2 1 0 0 0 0 0 0 0 0 0 0 0 0
0 0 0 0 0 0 0 0 0 0 0 0 0 0 0 0 1 2 4 5 5 5 5 5 5 4 4 3 3 3 3 3 3 3 3 3 2 1 0 0 0 0 0 0 0 0 0 0 0
0 0 0 0 0 0 0 0 0 0 0 0 0 0 0 0 0 1 2 2 2 3 4 5 5 4 4 3 2 2 2 3 3 3 3 3 3 2 1 0 0 0 0 0 0 0 0 0 0
0 0 0 0 0 0 0 0 0 0 0 0 0 0 0 0 0 0 0 1 1 1 2 4 6 6 5 4 2 1 1 1 3 3 3 3 3 2 1 0 0 0 0 0 0 0 0 0 0
0 0 0 0 0 0 0 0 0 0 0 0 0 0 0 0 0 0 0 0 0 0 1 4 6 6 6 5 3 1 0 1 2 3 3 2 3 2 1 0 0 0 0 0 0 0 0 0 0

GEFSSGP_con_probscp_114.txt.gz
Probability
0 0 0 0 0 0 0 0 0 0 0 0 0 0 0 0 1 1 0 1 2 4 3 1 0 0 0 4 9 9 5 3 1 0 0 0 0 0 0 0 0 0 0 0 0 0 0 0 0
0 0 0 0 0 0 0 0 0 0 0 0 0 0 0 1 2 2 1 0 1 3 3 2 1 0 1 3 7 7 5 3 2 1 0 0 0 0 0 0 0 0 0 0 0 0 0 0 0
0 0 0 0 0 0 0 0 0 0 0 0 0 0 0 1 3 3 3 2 2 3 4 4 2 0 1 3 5 5 4 3 2 1 0 0 0 0 0 0 0 0 0 0 0 0 0 0 0
0 0 0 0 0 0 0 0 0 0 0 0 0 0 0 1 2 4 5 6 5 3 4 5 3 0 1 2 3 4 3 3 1 0 0 0 0 0 0 0 0 0 0 0 0 0 0 0 0
0 0 0 0 0 0 0 0 0 0 0 0 0 0 1 2 3 5 8 10 8 5 4 5 4 2 2 2 3 4 3 2 1 0 0 0 0 0 0 0 0 0 0 0 0 0 0 0 0
0 0 0 0 0 0 0 0 0 0 0 0 0 1 5 8 10 11 11 11 9 7 7 7 6 5 3 3 3 4 3 1 0 0 0 0 0 0 0 0 0 0 0 0 0 0 0 0 0
0 0 0 0 0 0 0 0 0 0 0 0 1 3 10 18 22 20 16 12 9 9 10 9 7 6 4 2 2 3 3 1 0 0 0 0 0 0 0 0 0 0 0 0 0 0 0 0 0
0 0 0 0 0 0 0 0 0 0 0 1 3 7 18 31 36 32 25 18 13 12 13 13 9 6 4 2 3 4 3 1 0 0 0 0 0 0 0 0 0 0 0 0 0 0 0 0 0
0 0 0 0 0 0 0 0 0 0 0 3 8 18 35 51 54 49 41 32 26 21 18 16 13 9 5 4 5 5 3 1 0 0 0 0 0 0 0 0 0 0 0 0 0 0 0 0 0
0 0 0 0 0 0 0 0 0 0 1 5 14 33 56 68 70 65 57 49 43 35 25 19 18 16 11 11 10 7 3 1 0 0 0 0 0 0 0 0 0 0 0 0 0 0 0 0 0
0 0 0 0 0 0 0 0 0 1 3 6 19 43 66 76 77 74 67 60 56 48 35 26 25 24 21 21 19 12 7 3 1 0 0 0 0 0 0 0 0 0 0 0 0 0 0 0 0
0 0 0 0 0 0 0 0 1 2 4 8 21 44 65 74 76 73 68 64 61 57 47 37 34 34 32 30 25 18 13 8 3 2 1 1 1 0 0 0 0 0 0 0 0 0 0 0 0
0 0 0 0 0 0 0 0 1 3 5 10 24 44 61 68 70 68 66 65 64 60 53 45 41 42 41 37 31 24 18 13 7 5 3 2 2 1 0 0 0 0 0 0 0 0 0 0 0
0 0 0 0 0 0 0 0 1 4 7 13 25 44 59 66 68 66 64 65 63 57 51 47 42 41 40 37 34 29 23 17 10 7 5 3 2 1 0 0 0 0 0 0 0 0 0 0 0
0 0 0 0 0 0 0 0 2 5 11 16 27 44 59 65 65 63 60 60 57 50 45 42 36 31 31 31 30 27 23 16 11 9 6 4 3 2 1 0 0 0 0 0 0 0 0 0 0
0 0 0 0 0 0 0 1 2 5 11 18 28 43 55 59 58 53 51 50 47 43 38 33 25 21 24 28 27 24 20 16 13 10 7 5 3 1 1 0 0 0 0 0 0 0 0 0 0
0 0 0 0 0 0 0 1 2 4 9 17 27 37 45 49 47 42 39 37 36 33 30 26 20 16 20 28 30 24 19 16 14 10 7 4 1 0 0 0 0 0 0 0 0 0 0 0 0
0 0 0 0 0 0 0 1 3 5 8 16 23 29 34 36 36 34 30 26 25 23 22 22 18 16 21 29 30 25 20 17 13 9 6 3 1 0 0 0 0 0 0 0 0 0 0 0 0
0 0 0 0 0 0 0 0 2 6 9 14 18 22 27 29 30 29 25 21 18 17 16 16 15 16 21 27 28 26 21 16 11 7 5 3 1 1 0 0 0 0 0 0 0 0 0 0 0
0 0 0 0 0 0 0 0 2 5 8 11 13 17 24 27 26 25 23 19 16 14 12 11 12 15 18 23 27 26 21 14 9 6 5 3 1 0 0 0 0 0 0 0 0 0 0 0 0
0 0 0 0 0 0 0 0 2 3 5 7 9 13 18 20 21 21 19 18 16 14 11 11 12 14 16 20 23 22 18 13 9 8 7 4 1 0 0 0 0 0 0 0 0 0 0 0 0
0 0 0 0 0 0 0 0 1 1 1 4 6 7 10 12 14 16 15 14 14 12 12 13 13 14 16 17 16 15 15 13 11 9 6 4 2 1 0 0 0 0 0 0 0 0 0 0 0
0 0 0 0 0 0 0 0 0 0 0 1 3 4 5 7 10 12 12 10 7 6 8 10 12 13 15 14 12 11 12 13 11 8 6 3 2 1 0 0 0 0 0 0 0 0 0 0 0
0 0 0 0 0 0 0 0 0 0 0 0 1 2 4 5 6 8 9 7 4 3 5 7 9 11 10 9 9 9 11 12 11 9 6 4 2 1 1 1 0 0 0 0 0 0 0 0 0
0 0 0 0 0 0 0 0 0 0 0 0 0 2 4 3 4 6 7 7 7 7 8 8 9 8 6 5 6 7 9 10 10 9 7 5 3 2 2 2 1 0 0 0 0 0 0 0 0
0 0 0 0 0 0 0 0 0 0 0 0 0 2 4 3 3 4 6 7 8 9 11 11 11 8 5 4 4 5 6 7 8 8 8 7 5 4 3 3 2 1 0 1 1 0 0 0 0
0 0 0 0 0 0 0 0 0 0 0 0 0 2 3 3 3 4 5 6 7 8 10 11 11 10 7 6 5 4 4 5 6 7 7 8 6 4 3 3 3 2 2 2 2 1 0 0 0
0 0 0 0 0 0 0 0 0 0 0 0 0 1 2 2 1 2 3 5 6 7 7 7 8 9 8 8 7 5 4 4 3 5 6 7 6 5 4 3 3 3 3 4 3 1 0 0 0
0 0 0 0 0 0 0 0 0 0 0 0 0 1 2 3 1 1 2 4 6 6 5 4 5 6 7 8 8 6 5 5 4 5 7 7 7 6 6 5 5 4 4 5 5 3 1 1 0
0 0 0 0 0 0 0 0 0 0 0 0 0 1 4 5 2 1 2 4 6 6 4 2 3 5 7 8 7 6 6 6 5 6 8 9 9 9 8 8 7 6 6 7 7 5 3 2 1

GEFSSGP_con_probscp_120.txt.gz
Probability
0 0 1 3 3 1 1 1 0 0 0 0 0 0 0 0 0 1 8 23 38 34 20 14 10 4 1 0 0 0 0 0 0 0 0 0 0 0 0 0 0 0 0 0 0 0 0 0 0
0 0 2 3 2 1 0 0 0 0 0 0 0 0 0 0 0 3 13 31 40 32 20 16 12 5 1 0 0 0 0 0 0 0 0 0 0 0 0 0 0 0 0 0 0 0 0 0 0
0 0 2 2 1 0 0 0 0 0 0 0 0 1 1 1 2 6 20 39 41 31 24 22 16 8 2 0 1 1 0 0 0 0 0 0 0 0 0 0 0 0 0 0 0 0 0 0 0
0 0 1 1 0 0 0 0 0 0 0 0 1 4 5 4 6 13 25 38 40 32 27 25 20 12 4 2 2 2 1 0 0 0 0 0 0 0 0 0 0 0 0 0 0 0 0 0 0
0 0 1 0 0 0 0 0 0 0 0 0 3 9 12 10 12 18 26 35 38 34 27 24 21 13 5 3 3 3 2 0 0 0 0 0 0 0 0 0 0 0 0 0 0 0 0 0 0
0 1 1 0 0 0 0 0 0 0 0 0 4 14 21 20 19 19 23 31 37 36 29 23 19 13 6 3 3 2 1 0 0 0 0 0 0 0 0 0 0 0 0 0 0 0 0 0 0
1 1 0 0 0 0 0 0 0 0 0 0 4 17 31 33 26 21 22 28 38 41 33 22 16 11 6 4 2 1 0 0 0 0 0 0 0 0 0 0 0 0 0 0 0 0 0 0 0
0 0 0 0 0 0 0 0 0 0 0 1 5 19 39 46 36 28 27 32 42 47 38 22 13 10 8 5 2 0 0 0 0 0 0 0 0 0 0 0 0 0 0 0 0 0 0 0 0
0 0 0 0 0 0 0 0 0 0 2 5 11 27 48 54 47 40 39 43 53 58 46 27 17 14 11 8 5 2 1 0 0 0 0 0 0 0 0 0 0 0 0 0 0 0 0 0 0
0 0 0 0 0 0 0 0 0 1 3 9 22 41 56 59 58 54 53 59 69 70 56 39 29 21 17 14 10 5 2 1 1 0 0 0 0 0 0 0 0 0 0 0 0 0 0 0 0
0 0 0 0 0 0 0 0 1 3 6 12 29 51 62 65 66 64 63 70 78 76 62 50 43 33 27 25 16 7 4 3 2 2 1 1 1 0 0 0 0 0 0 0 0 0 0 0 0
0 0 0 0 0 0 0 0 1 4 6 12 28 51 65 68 69 69 70 74 79 77 68 59 54 47 44 37 21 9 7 6 6 5 3 2 2 2 1 1 0 0 0 0 0 0 0 0 0
0 0 0 0 0 0 0 0 2 3 5 10 25 48 65 69 70 71 74 78 80 79 73 65 59 58 57 46 28 17 17 17 15 9 5 4 5 5 5 4 2 1 1 1 1 0 0 0 0
0 0 0 0 0 0 0 1 3 5 5 10 24 45 64 71 72 74 77 80 80 77 73 67 61 60 59 49 34 29 28 26 23 16 10 9 8 8 7 6 5 3 2 1 1 0 0 0 0
0 0 0 0 0 0 0 1 4 5 6 12 24 42 60 72 74 75 78 79 76 73 69 63 58 57 55 46 38 33 29 26 25 23 19 15 12 10 8 6 5 3 2 1 0 0 0 0 0
0 0 0 0 0 0 1 2 3 3 6 14 27 43 59 69 71 72 74 73 70 66 63 58 53 51 48 44 40 35 28 26 26 26 23 19 15 12 9 7 5 3 1 0 0 0 0 0 0
0 0 0 0 0 0 1 2 2 2 6 17 31 47 62 66 65 66 67 64 61 60 59 56 50 46 42 41 40 37 33 30 29 27 22 19 16 13 11 8 6 3 2 1 1 1 0 0 0
0 0 0 0 0 0 0 1 2 4 8 17 32 49 62 63 60 60 60 57 54 54 54 52 45 38 35 34 33 33 33 32 30 26 21 18 16 13 9 7 6 4 2 2 2 1 0 0 0
0 0 0 0 0 0 0 0 3 7 8 15 30 48 58 60 59 58 56 52 50 49 47 44 37 31 29 27 25 26 28 28 27 25 21 18 15 11 8 6 6 5 3 2 1 0 0 0 0
0 0 0 0 0 0 1 2 7 9 8 13 27 42 52 57 59 58 53 47 46 44 41 37 33 30 28 25 23 24 27 26 23 22 21 17 12 8 6 6 6 5 3 1 0 0 0 0 0
0 0 0 0 0 0 1 4 10 12 11 13 21 31 43 52 57 56 49 43 42 40 36 33 32 31 29 26 24 25 28 24 18 19 22 18 11 6 5 6 6 4 2 1 0 0 0 0 0
0 0 0 0 0 0 1 3 9 14 14 13 17 24 34 47 55 53 46 41 38 34 31 30 31 31 28 25 24 25 25 21 16 17 22 20 13 9 8 8 8 5 3 1 0 0 0 0 0
0 0 0 0 0 0 0 1 6 11 14 14 18 24 31 42 51 50 44 39 34 28 26 27 28 28 24 22 23 24 22 20 17 18 20 20 17 13 11 12 10 7 5 2 1 1 0 0 0
0 0 0 0 0 0 0 1 3 6 9 14 22 26 29 35 43 43 38 33 27 23 23 24 26 25 22 19 20 21 21 20 18 19 19 18 17 15 13 13 13 10 6 3 1 0 0 0 0
0 0 0 0 0 0 0 1 3 3 4 12 24 27 26 29 32 33 32 28 23 20 20 23 25 26 22 19 17 17 20 22 20 17 16 15 14 14 13 12 12 10 7 3 1 0 0 0 0
0 0 0 0 0 0 0 1 3 2 2 11 22 25 23 23 24 25 28 27 23 19 19 21 24 25 23 19 16 16 17 19 18 15 13 13 12 12 13 13 12 9 6 4 2 2 1 1 0
0 0 0 0 0 0 1 2 3 3 3 9 17 19 19 19 19 22 26 25 22 20 20 20 21 21 21 19 15 13 13 13 13 12 11 12 12 12 14 15 13 10 7 5 4 3 3 2 1
0 0 0 0 0 0 1 2 4 4 3 6 12 15 17 17 18 22 24 21 19 19 20 21 20 20 19 19 16 13 11 11 11 12 12 12 12 13 14 15 14 11 8 7 6 5 4 3 3
0 0 0 0 0 0 0 1 2 3 3 5 9 13 18 21 22 25 25 21 18 18 19 20 19 18 18 18 16 14 13 12 11 13 13 12 12 13 14 15 15 13 10 10 9 6 5 5 6
0 0 0 0 0 0 0 0 1 1 2 4 8 13 19 24 26 28 28 23 18 17 18 18 17 15 15 15 15 16 15 13 12 12 14 13 11 12 15 17 17 14 12 12 10 7 6 6 8